M I D A S
Marine Information and Data Acquisition System
Tripno 1958 of the Zeeleeuw from 2010-09-09 08:09:41 to 2010-09-09 16:25:01
Back to CruiseResearch ActivitiesStationsMapUnderway DataData graphs

EquipmentUnitsComment
TimeDGPSUTC
LatitudeDGPSDM.mWGS84
LongitudeDGPSDM.mWGS84
TemperatureSBE03/SBE38deg celciusITS90
ConductivitySBE21S/mITS90
SalinitySBE21 Practical Salinity Units
ChlorophylAChelsea fluorimeterg/lCalibrated in Aceton
Missing or incorrect values are displayed as -999
Sea surface data collected by the RV Zeeleeuw from 2010-09-09 06:27:41 to 2010-09-09 16:33:28
                                                                                    Next 1000 lines
Time Latitude Longitude Temperature Conductivity Salinity ChlorophylA
2010-09-09 06:27:50 51°13.661 2°55.96 20.3971 0.074006 0.413069 -0.861272
2010-09-09 06:27:56 51°13.661 2°55.96 20.3982 0.074006 0.413069 -0.861272
2010-09-09 06:28:01 51°13.661 2°55.96 20.398 0.074006 0.413076 -0.861272
2010-09-09 06:28:05 51°13.661 2°55.96 20.3973 0.074006 0.413076 -0.826448
2010-09-09 06:28:10 51°13.66 2°55.96 20.3922 0.074006 0.413076 -0.826448
2010-09-09 06:28:15 51°13.66 2°55.96 20.3618 0.074006 0.413076 -0.826448
2010-09-09 06:28:20 51°13.661 2°55.959 20.3774 0.074006 0.413076 -0.896096
2010-09-09 06:28:25 51°13.662 2°55.958 20.3551 0.074006 0.413076 -0.826448
2010-09-09 06:28:30 51°13.662 2°55.956 20.3419 0.074006 0.413076 -0.826448
2010-09-09 06:28:35 51°13.663 2°55.953 20.364 0.074006 0.413076 -0.791624
2010-09-09 06:28:40 51°13.664 2°55.949 20.3671 0.074006 0.413083 -0.861272
2010-09-09 06:28:45 51°13.666 2°55.945 20.3762 0.074006 0.413083 -0.861272
2010-09-09 06:28:50 51°13.667 2°55.94 20.3717 0.074006 0.413083 -0.861272
2010-09-09 06:28:56 51°13.67 2°55.934 20.3638 0.074006 0.413089 -0.861272
2010-09-09 06:29:01 51°13.671 2°55.928 20.3593 0.074006 0.413083 -0.861272
2010-09-09 06:29:05 51°13.672 2°55.923 20.3587 0.074006 0.413089 -0.861272
2010-09-09 06:29:11 51°13.674 2°55.915 20.3687 0.074006 0.413083 -0.826448
2010-09-09 06:29:16 51°13.676 2°55.908 20.3745 0.074006 0.413083 -0.826448
2010-09-09 06:29:21 51°13.678 2°55.901 20.3787 0.074006 0.413083 -0.861272
2010-09-09 06:29:25 51°13.68 2°55.895 20.3801 0.074006 0.413083 -0.826448
2010-09-09 06:29:30 51°13.682 2°55.887 20.3822 0.074006 0.413083 -0.826448
2010-09-09 06:29:36 51°13.684 2°55.877 20.3822 0.074006 0.413089 -0.861272
2010-09-09 06:29:41 51°13.686 2°55.868 20.3823 0.074006 0.413089 -0.861272
2010-09-09 06:29:45 51°13.687 2°55.861 20.3862 0.074006 0.413089 -0.861272
2010-09-09 06:29:51 51°13.688 2°55.85 20.3867 0.074006 0.413083 -0.826448
2010-09-09 06:29:56 51°13.689 2°55.841 20.3876 0.074006 0.413096 -0.861272
2010-09-09 06:30:01 51°13.69 2°55.832 20.3878 0.074006 0.413096 -0.861272
2010-09-09 06:30:06 51°13.691 2°55.824 20.3838 0.074006 0.413089 -0.861272
2010-09-09 06:30:11 51°13.692 2°55.815 20.3842 0.074006 0.413096 -0.791624
2010-09-09 06:30:16 51°13.692 2°55.806 20.3813 0.074006 0.413096 -0.791624
2010-09-09 06:30:21 51°13.692 2°55.797 20.3839 0.074006 0.413083 -0.861272
2010-09-09 06:30:25 51°13.692 2°55.791 20.3864 0.074006 0.413089 -0.826448
2010-09-09 06:30:30 51°13.692 2°55.783 20.388 0.074006 0.413089 -0.826448
2010-09-09 06:30:35 51°13.691 2°55.775 20.3892 0.074006 0.413089 -0.861272
2010-09-09 06:30:40 51°13.691 2°55.768 20.3863 0.074006 0.413083 -0.826448
2010-09-09 06:30:45 51°13.69 2°55.761 20.3897 0.074006 0.413083 -0.826448
2010-09-09 06:30:50 51°13.69 2°55.756 20.3886 0.074006 0.413083 -0.826448
2010-09-09 06:30:55 51°13.689 2°55.751 20.4027 0.074006 0.413089 -0.861272
2010-09-09 06:31:00 51°13.69 2°55.747 20.4048 0.074006 0.413089 -0.861272
2010-09-09 06:31:05 51°13.69 2°55.745 20.4025 0.074006 0.413083 -0.826448
2010-09-09 06:31:09 51°13.69 2°55.744 20.3983 0.074006 0.413089 -0.826448
2010-09-09 06:31:14 51°13.691 2°55.744 20.4009 0.074006 0.413089 -0.826448
2010-09-09 06:31:19 51°13.691 2°55.743 20.4003 0.074006 0.413089 -0.826448
2010-09-09 06:31:24 51°13.692 2°55.744 20.4001 0.074006 0.413089 -0.861272
2010-09-09 06:31:29 51°13.693 2°55.744 20.3998 0.074006 0.413096 -0.826448
2010-09-09 06:31:33 51°13.694 2°55.744 20.4003 0.074006 0.413096 -0.826448
2010-09-09 06:31:38 51°13.696 2°55.744 20.3989 0.074006 0.413103 -0.861272
2010-09-09 06:31:43 51°13.698 2°55.745 20.4013 0.074006 0.413103 -0.861272
2010-09-09 06:31:48 51°13.7 2°55.745 20.4024 0.074006 0.41311 -0.826448
2010-09-09 06:31:53 51°13.703 2°55.745 20.4039 0.074006 0.413103 -0.826448
2010-09-09 06:31:58 51°13.706 2°55.745 20.4089 0.074006 0.413103 -0.826448
2010-09-09 06:32:03 51°13.709 2°55.745 20.4209 0.074006 0.413103 -0.861272
2010-09-09 06:32:07 51°13.712 2°55.744 20.4243 0.074006 0.413096 -0.826448
2010-09-09 06:32:12 51°13.715 2°55.743 20.4252 0.074006 0.413096 -0.826448
2010-09-09 06:32:17 51°13.72 2°55.74 20.425 0.074006 0.413096 -0.861272
2010-09-09 06:32:22 51°13.724 2°55.737 20.4186 0.074006 0.41311 -0.861272
2010-09-09 06:32:27 51°13.729 2°55.734 20.4144 0.074006 0.413103 -0.826448
2010-09-09 06:32:32 51°13.735 2°55.73 20.3982 0.074006 0.413096 -0.861272
2010-09-09 06:32:37 51°13.74 2°55.724 20.3957 0.074006 0.413089 -0.861272
2010-09-09 06:32:41 51°13.745 2°55.719 20.3883 0.074006 0.413089 -0.861272
2010-09-09 06:32:47 51°13.752 2°55.711 20.3898 0.074006 0.413089 -0.861272
2010-09-09 06:32:52 51°13.759 2°55.704 20.3944 0.074006 0.413083 -0.826448
2010-09-09 06:32:57 51°13.766 2°55.695 20.3784 0.074006 0.413089 -0.861272
2010-09-09 06:33:02 51°13.773 2°55.686 20.3621 0.074006 0.413083 -0.826448
2010-09-09 06:33:07 51°13.781 2°55.677 20.3391 0.074006 0.413096 -0.826448
2010-09-09 06:33:12 51°13.789 2°55.668 20.3378 0.074006 0.413096 -0.826448
2010-09-09 06:33:17 51°13.797 2°55.658 20.3112 0.074006 0.413089 -0.861272
2010-09-09 06:33:22 51°13.806 2°55.649 20.2986 0.074006 0.413089 -0.826448
2010-09-09 06:33:27 51°13.816 2°55.64 20.2764 0.074006 0.413096 -0.826448
2010-09-09 06:33:32 51°13.825 2°55.631 20.3093 0.074006 0.413103 -0.861272
2010-09-09 06:33:37 51°13.836 2°55.623 20.3049 0.074006 0.41311 -0.861272
2010-09-09 06:33:42 51°13.846 2°55.614 20.3124 0.074006 0.41311 -0.861272
2010-09-09 06:33:47 51°13.857 2°55.606 20.3157 0.074006 0.41311 -0.826448
2010-09-09 06:33:52 51°13.868 2°55.599 20.3472 0.074006 0.413117 -0.861272
2010-09-09 06:33:57 51°13.879 2°55.592 20.3307 0.074006 0.413124 -0.861272
2010-09-09 06:34:01 51°13.888 2°55.585 20.3584 0.074006 0.41313 -0.826448
2010-09-09 06:34:07 51°13.902 2°55.577 20.339 0.074006 0.41313 -0.791624
2010-09-09 06:34:12 51°13.914 2°55.569 20.3599 0.074006 0.41313 -0.791624
2010-09-09 06:34:17 51°13.926 2°55.561 20.3629 0.074006 0.41313 -0.861272
2010-09-09 06:34:22 51°13.938 2°55.554 20.3491 0.074006 0.413137 -0.826448
2010-09-09 06:34:27 51°13.951 2°55.545 20.3584 0.074006 0.413137 -0.861272
2010-09-09 06:34:32 51°13.963 2°55.538 20.3263 0.074006 0.41313 -0.861272
2010-09-09 06:34:37 51°13.975 2°55.529 20.3334 0.074006 0.413137 -0.826448
2010-09-09 06:34:42 51°13.988 2°55.521 20.3551 0.074006 0.413137 -0.826448
2010-09-09 06:34:47 51°14.001 2°55.514 20.3616 0.074006 0.41313 -0.826448
2010-09-09 06:34:52 51°14.013 2°55.506 20.3574 0.074006 0.41313 -0.861272
2010-09-09 06:34:57 51°14.026 2°55.498 20.3632 0.074006 0.41313 -0.861272
2010-09-09 06:35:02 51°14.039 2°55.49 20.3544 0.074006 0.413137 -0.861272
2010-09-09 06:35:07 51°14.052 2°55.481 20.3598 0.074006 0.413137 -0.826448
2010-09-09 06:35:13 51°14.067 2°55.471 20.365 0.074006 0.413137 -0.826448
2010-09-09 06:35:17 51°14.077 2°55.464 20.3584 0.074006 0.413144 -0.826448
2010-09-09 06:35:22 51°14.09 2°55.455 20.3654 0.074006 0.413144 -0.861272
2010-09-09 06:35:27 51°14.103 2°55.446 20.38 0.074006 0.413137 -0.826448
2010-09-09 06:35:32 51°14.115 2°55.437 20.3716 0.074006 0.413137 -0.861272
2010-09-09 06:35:37 51°14.128 2°55.427 20.4021 0.074006 0.41313 -0.826448
2010-09-09 06:35:42 51°14.14 2°55.417 20.377 0.074006 0.41313 -0.826448
2010-09-09 06:35:47 51°14.152 2°55.405 20.3848 0.074006 0.413137 -0.826448
2010-09-09 06:35:53 51°14.166 2°55.392 20.3858 0.074006 0.413137 -0.826448
2010-09-09 06:35:58 51°14.178 2°55.381 20.3834 0.074006 0.41313 -0.861272
2010-09-09 06:36:03 51°14.19 2°55.369 20.3797 0.074006 0.41313 -0.861272
2010-09-09 06:36:08 51°14.202 2°55.358 20.3832 0.074006 0.41313 -0.826448
2010-09-09 06:36:13 51°14.214 2°55.346 20.3818 0.074006 0.41313 -0.826448
2010-09-09 06:36:18 51°14.226 2°55.333 20.3776 0.074006 0.413137 -0.861272
2010-09-09 06:36:23 51°14.238 2°55.321 20.3679 0.074006 0.41313 -0.861272
2010-09-09 06:36:28 51°14.25 2°55.309 20.3604 0.074006 0.413137 -0.861272
2010-09-09 06:36:33 51°14.262 2°55.297 20.3572 0.074006 0.413137 -0.826448
2010-09-09 06:36:37 51°14.271 2°55.287 20.3235 0.074006 0.413144 -0.826448
2010-09-09 06:36:42 51°14.283 2°55.275 20.3763 0.074006 0.413144 -0.826448
2010-09-09 06:36:47 51°14.296 2°55.264 20.3452 0.074006 0.413144 -0.826448
2010-09-09 06:36:52 51°14.308 2°55.252 20.349 0.074006 0.413144 -0.826448
2010-09-09 06:36:57 51°14.32 2°55.241 20.3417 0.074006 0.413144 -0.861272
2010-09-09 06:37:01 51°14.33 2°55.232 20.3599 0.074006 0.41313 -0.861272
2010-09-09 06:37:07 51°14.345 2°55.218 20.3649 0.074006 0.413144 -0.826448
2010-09-09 06:37:12 51°14.358 2°55.207 20.3788 0.074006 0.413144 -0.826448
2010-09-09 06:37:17 51°14.37 2°55.196 20.3665 0.074006 0.413144 -0.861272
2010-09-09 06:37:22 51°14.382 2°55.184 20.3804 0.074006 0.413144 -0.861272
2010-09-09 06:37:27 51°14.395 2°55.173 20.3848 0.074006 0.413151 -0.861272
2010-09-09 06:37:32 51°14.407 2°55.161 20.3374 0.074006 0.413151 -0.826448
2010-09-09 06:37:37 51°14.419 2°55.149 20.3317 0.074006 0.413151 -0.826448
2010-09-09 06:37:42 51°14.432 2°55.137 20.3515 0.074006 0.413151 -0.826448
2010-09-09 06:37:47 51°14.445 2°55.125 20.3655 0.074006 0.413144 -0.826448
2010-09-09 06:37:52 51°14.458 2°55.113 20.3748 0.074006 0.413144 -0.826448
2010-09-09 06:37:57 51°14.471 2°55.1 20.3567 0.074006 0.413144 -0.861272
2010-09-09 06:38:02 51°14.485 2°55.086 20.3256 0.074006 0.413151 -0.826448
2010-09-09 06:38:07 51°14.498 2°55.073 20.304 0.074006 0.413158 -0.826448
2010-09-09 06:38:12 51°14.512 2°55.059 20.357 0.074006 0.413158 -0.826448
2010-09-09 06:38:17 51°14.526 2°55.046 20.358 0.074006 0.413144 -0.826448
2010-09-09 06:38:22 51°14.539 2°55.03 20.3435 0.074006 0.413151 -0.861272
2010-09-09 06:38:27 51°14.553 2°55.014 20.2928 0.074006 0.413165 -0.826448
2010-09-09 06:38:32 51°14.566 2°54.998 20.2996 0.074006 0.413165 -0.826448
2010-09-09 06:38:37 51°14.58 2°54.981 20.3388 0.074006 0.413151 -0.861272
2010-09-09 06:38:42 51°14.594 2°54.965 20.278 0.074006 0.413151 -0.861272
2010-09-09 06:38:47 51°14.608 2°54.947 20.2858 0.074006 0.413158 -0.826448
2010-09-09 06:38:52 51°14.622 2°54.929 20.314 0.074006 0.413151 -0.861272
2010-09-09 06:38:57 51°14.636 2°54.912 20.3465 0.074006 0.413151 -0.861272
2010-09-09 06:39:01 51°14.648 2°54.898 20.3172 0.074006 0.413151 -0.861272
2010-09-09 06:39:07 51°14.664 2°54.876 20.3463 0.074006 0.413171 -0.826448
2010-09-09 06:39:12 51°14.678 2°54.857 20.3214 0.074006 0.413171 -0.826448
2010-09-09 06:39:17 51°14.692 2°54.838 20.3482 0.074006 0.413185 -0.861272
2010-09-09 06:39:22 51°14.705 2°54.818 20.318 0.074006 0.413165 -0.861272
2010-09-09 06:39:27 51°14.718 2°54.798 20.2962 0.074006 0.413178 -0.826448
2010-09-09 06:39:32 51°14.731 2°54.778 20.3074 0.074006 0.413171 -0.861272
2010-09-09 06:39:37 51°14.745 2°54.758 20.3104 0.074006 0.413165 -0.861272
2010-09-09 06:39:42 51°14.758 2°54.738 20.3269 0.074006 0.413165 -0.861272
2010-09-09 06:39:47 51°14.771 2°54.719 20.3263 0.074006 0.413165 -0.861272
2010-09-09 06:39:52 51°14.784 2°54.699 20.3341 0.074006 0.413165 -0.826448
2010-09-09 06:39:57 51°14.797 2°54.679 20.3206 0.073902 0.41257 -0.826448
2010-09-09 06:40:01 51°14.807 2°54.663 20.2981 0.073902 0.41257 -0.826448
2010-09-09 06:40:07 51°14.823 2°54.639 20.3149 0.074006 0.413171 -0.861272
2010-09-09 06:40:12 51°14.836 2°54.62 20.3036 0.074006 0.413171 -0.861272
2010-09-09 06:40:17 51°14.85 2°54.602 20.3234 0.074006 0.413165 -0.861272
2010-09-09 06:40:21 51°14.861 2°54.588 20.3181 0.074006 0.413165 -0.826448
2010-09-09 06:40:27 51°14.878 2°54.568 20.3049 0.074006 0.413171 -0.861272
2010-09-09 06:40:32 51°14.893 2°54.551 20.3247 0.074006 0.413171 -0.826448
2010-09-09 06:40:37 51°14.907 2°54.535 20.3219 0.074006 0.413171 -0.861272
2010-09-09 06:40:42 51°14.922 2°54.519 20.3332 0.074006 0.413171 -0.861272
2010-09-09 06:40:46 51°14.934 2°54.507 20.3111 0.074006 0.413178 -0.861272
2010-09-09 06:40:52 51°14.951 2°54.488 20.3205 0.074006 0.413178 -0.826448
2010-09-09 06:40:57 51°14.966 2°54.473 20.3124 0.074006 0.413178 -0.861272
2010-09-09 06:41:01 51°14.978 2°54.46 20.3024 0.074006 0.413185 -0.826448
2010-09-09 06:41:07 51°14.995 2°54.443 20.3053 0.074006 0.413192 -0.826448
2010-09-09 06:41:12 51°15.01 2°54.428 20.3262 0.074006 0.413192 -0.826448
2010-09-09 06:41:17 51°15.025 2°54.414 20.3222 0.074006 0.413185 -0.861272
2010-09-09 06:41:22 51°15.04 2°54.4 20.3415 0.074006 0.413178 -0.861272
2010-09-09 06:41:27 51°15.054 2°54.384 20.3399 0.073902 0.412591 -0.826448
2010-09-09 06:41:32 51°15.069 2°54.369 20.3159 0.074006 0.413185 -0.826448
2010-09-09 06:41:37 51°15.083 2°54.352 20.3414 0.074006 0.413192 -0.861272
2010-09-09 06:41:42 51°15.097 2°54.336 20.3185 0.074006 0.413192 -0.861272
2010-09-09 06:41:47 51°15.111 2°54.319 20.29 0.074006 0.413199 -0.861272
2010-09-09 06:41:52 51°15.125 2°54.302 20.3041 0.074006 0.413192 -0.826448
2010-09-09 06:41:57 51°15.139 2°54.284 20.3199 0.074006 0.413199 -0.861272
2010-09-09 06:42:01 51°15.15 2°54.27 20.3088 0.074006 0.413192 -0.861272
2010-09-09 06:42:07 51°15.167 2°54.248 20.295 0.073902 0.412604 -0.826448
2010-09-09 06:42:12 51°15.181 2°54.231 20.2949 0.073902 0.412604 -0.826448
2010-09-09 06:42:17 51°15.195 2°54.213 20.3099 0.073902 0.412577 -0.861272
2010-09-09 06:42:22 51°15.209 2°54.196 20.2953 0.074006 0.413199 -0.861272
2010-09-09 06:42:27 51°15.224 2°54.178 20.3195 0.073902 0.412591 -0.826448
2010-09-09 06:42:32 51°15.238 2°54.162 20.3039 0.074006 0.413185 -0.826448
2010-09-09 06:42:37 51°15.252 2°54.145 20.3174 0.074006 0.413206 -0.826448
2010-09-09 06:42:41 51°15.264 2°54.131 20.3094 0.074006 0.413206 -0.826448
2010-09-09 06:42:47 51°15.281 2°54.111 20.3169 0.073902 0.412598 -0.861272
2010-09-09 06:42:52 51°15.296 2°54.094 20.3144 0.074006 0.413206 -0.826448
2010-09-09 06:42:57 51°15.31 2°54.077 20.3237 0.073902 0.412604 -0.826448
2010-09-09 06:43:02 51°15.325 2°54.061 20.3047 0.074006 0.413212 -0.826448
2010-09-09 06:43:07 51°15.339 2°54.044 20.3317 0.074006 0.413199 -0.861272
2010-09-09 06:43:12 51°15.354 2°54.027 20.3089 0.074006 0.413199 -0.861272
2010-09-09 06:43:17 51°15.369 2°54.01 20.3364 0.073902 0.412604 -0.861272
2010-09-09 06:43:21 51°15.38 2°53.997 20.296 0.073902 0.412604 -0.826448
2010-09-09 06:43:27 51°15.398 2°53.976 20.3154 0.074006 0.413212 -0.826448
2010-09-09 06:43:32 51°15.412 2°53.959 20.3007 0.074006 0.413212 -0.861272
2010-09-09 06:43:37 51°15.426 2°53.942 20.3199 0.073902 0.412611 -0.826448
2010-09-09 06:43:42 51°15.441 2°53.925 20.308 0.073902 0.412611 -0.826448
2010-09-09 06:43:47 51°15.455 2°53.907 20.3177 0.074006 0.413212 -0.861272
2010-09-09 06:43:52 51°15.47 2°53.891 20.307 0.074006 0.413212 -0.826448
2010-09-09 06:43:57 51°15.485 2°53.874 20.3212 0.074006 0.413212 -0.826448
2010-09-09 06:44:02 51°15.5 2°53.858 20.3075 0.073902 0.412604 -0.861272
2010-09-09 06:44:07 51°15.514 2°53.842 20.3056 0.073902 0.412618 -0.826448
2010-09-09 06:44:12 51°15.53 2°53.826 20.3325 0.073902 0.412618 -0.826448
2010-09-09 06:44:17 51°15.544 2°53.811 20.3089 0.073902 0.412611 -0.826448
2010-09-09 06:44:22 51°15.56 2°53.795 20.3312 0.074006 0.413219 -0.861272
2010-09-09 06:44:27 51°15.575 2°53.78 20.3066 0.074006 0.413219 -0.826448
2010-09-09 06:44:32 51°15.59 2°53.764 20.3275 0.074006 0.413226 -0.861272
2010-09-09 06:44:37 51°15.605 2°53.748 20.2986 0.074006 0.413226 -0.826448
2010-09-09 06:44:41 51°15.617 2°53.736 20.3106 0.074006 0.413226 -0.826448
2010-09-09 06:44:47 51°15.635 2°53.717 20.3187 0.074006 0.413219 -0.826448
2010-09-09 06:44:52 51°15.65 2°53.701 20.329 0.074006 0.413226 -0.861272
2010-09-09 06:44:57 51°15.665 2°53.685 20.2989 0.074006 0.413219 -0.861272
2010-09-09 06:45:02 51°15.68 2°53.669 20.3118 0.074006 0.413219 -0.826448
2010-09-09 06:45:06 51°15.691 2°53.656 20.3022 0.074006 0.413226 -0.826448
2010-09-09 06:45:12 51°15.709 2°53.637 20.3224 0.074006 0.413226 -0.826448
2010-09-09 06:45:17 51°15.724 2°53.621 20.3098 0.074006 0.413226 -0.861272
2010-09-09 06:45:22 51°15.739 2°53.605 20.3223 0.074006 0.413212 -0.826448
2010-09-09 06:45:27 51°15.754 2°53.589 20.3204 0.073902 0.412632 -0.896096
2010-09-09 06:45:32 51°15.769 2°53.573 20.286 0.073902 0.412632 -0.861272
2010-09-09 06:45:37 51°15.784 2°53.558 20.2973 0.074006 0.413233 -0.861272
2010-09-09 06:45:41 51°15.796 2°53.546 20.2787 0.074006 0.413233 -0.861272
2010-09-09 06:45:47 51°15.815 2°53.529 20.3049 0.074006 0.413233 -0.791624
2010-09-09 06:45:52 51°15.83 2°53.515 20.3185 0.074006 0.413226 -0.826448
2010-09-09 06:45:57 51°15.846 2°53.5 20.3178 0.073902 0.412632 -0.861272
2010-09-09 06:46:02 51°15.861 2°53.487 20.3188 0.074006 0.413233 -0.826448
2010-09-09 06:46:07 51°15.877 2°53.473 20.3145 0.074006 0.413233 -0.861272
2010-09-09 06:46:12 51°15.892 2°53.459 20.3132 0.074006 0.413233 -0.861272
2010-09-09 06:46:17 51°15.908 2°53.446 20.3032 0.074006 0.413233 -0.861272
2010-09-09 06:46:22 51°15.924 2°53.433 20.2932 0.074006 0.41324 -0.861272
2010-09-09 06:46:27 51°15.94 2°53.42 20.2878 0.074006 0.413226 -0.826448
2010-09-09 06:46:32 51°15.956 2°53.408 20.3235 0.074006 0.413233 -0.861272
2010-09-09 06:46:37 51°15.972 2°53.396 20.2916 0.074006 0.41324 -0.826448
2010-09-09 06:46:42 51°15.988 2°53.384 20.3237 0.074006 0.41324 -0.826448
2010-09-09 06:46:47 51°16.004 2°53.372 20.2929 0.073902 0.412632 -0.861272
2010-09-09 06:46:52 51°16.019 2°53.361 20.326 0.074006 0.41324 -0.826448
2010-09-09 06:46:57 51°16.035 2°53.349 20.3123 0.074006 0.41324 -0.826448
2010-09-09 06:47:01 51°16.048 2°53.339 20.295 0.074006 0.413247 -0.861272
2010-09-09 06:47:07 51°16.067 2°53.325 20.3243 0.074006 0.413247 -0.861272
2010-09-09 06:47:12 51°16.083 2°53.314 20.3163 0.074006 0.413247 -0.861272
2010-09-09 06:47:17 51°16.099 2°53.303 20.3163 0.074006 0.413247 -0.861272
2010-09-09 06:47:22 51°16.115 2°53.291 20.3089 0.074006 0.413247 -0.861272
2010-09-09 06:47:26 51°16.128 2°53.282 20.3039 0.074006 0.413247 -0.861272
2010-09-09 06:47:32 51°16.147 2°53.268 20.3188 0.073902 0.412639 -0.861272
2010-09-09 06:47:37 51°16.163 2°53.256 20.3105 0.074006 0.413254 -0.826448
2010-09-09 06:47:42 51°16.179 2°53.245 20.3284 0.074006 0.413254 -0.826448
2010-09-09 06:47:47 51°16.195 2°53.233 20.307 0.074006 0.41324 -0.861272
2010-09-09 06:47:52 51°16.211 2°53.222 20.3222 0.073902 0.412645 -0.826448
2010-09-09 06:47:57 51°16.227 2°53.21 20.3122 0.074006 0.413247 -0.861272
2010-09-09 06:48:02 51°16.242 2°53.198 20.3145 0.074006 0.413247 -0.826448
2010-09-09 06:48:07 51°16.258 2°53.187 20.3195 0.074006 0.413247 -0.861272
2010-09-09 06:48:12 51°16.274 2°53.175 20.33 0.074006 0.413247 -0.861272
2010-09-09 06:48:17 51°16.29 2°53.163 20.3172 0.074006 0.41324 -0.826448
2010-09-09 06:48:22 51°16.306 2°53.152 20.295 0.074006 0.413247 -0.826448
2010-09-09 06:48:27 51°16.322 2°53.14 20.2985 0.073902 0.412645 -0.861272
2010-09-09 06:48:32 51°16.338 2°53.129 20.2996 0.074006 0.413247 -0.861272
2010-09-09 06:48:37 51°16.353 2°53.117 20.2991 0.073902 0.412652 -0.826448
2010-09-09 06:48:41 51°16.366 2°53.108 20.2986 0.073902 0.412652 -0.826448
2010-09-09 06:48:47 51°16.385 2°53.094 20.2986 0.074006 0.413267 -0.861272
2010-09-09 06:48:52 51°16.401 2°53.082 20.3002 0.074006 0.41326 -0.861272
2010-09-09 06:48:57 51°16.417 2°53.07 20.3019 0.073902 0.412659 -0.826448
2010-09-09 06:49:02 51°16.433 2°53.059 20.303 0.074006 0.413247 -0.826448
2010-09-09 06:49:07 51°16.449 2°53.047 20.3046 0.074006 0.413254 -0.861272
2010-09-09 06:49:12 51°16.465 2°53.035 20.3058 0.074006 0.413254 -0.861272
2010-09-09 06:49:17 51°16.48 2°53.023 20.3073 0.074006 0.41326 -0.861272
2010-09-09 06:49:22 51°16.496 2°53.011 20.3083 0.073902 0.412652 -0.826448
2010-09-09 06:49:27 51°16.512 2°52.999 20.3098 0.074006 0.413254 -0.861272
2010-09-09 06:49:32 51°16.528 2°52.987 20.3103 0.074006 0.413267 -0.861272
2010-09-09 06:49:37 51°16.544 2°52.975 20.3115 0.074006 0.41326 -0.826448
2010-09-09 06:49:42 51°16.56 2°52.964 20.3123 0.074006 0.41326 -0.826448
2010-09-09 06:49:47 51°16.576 2°52.953 20.3132 0.074006 0.413254 -0.826448
2010-09-09 06:49:52 51°16.592 2°52.942 20.3144 0.074006 0.41326 -0.861272
2010-09-09 06:49:57 51°16.608 2°52.931 20.315 0.074006 0.413267 -0.861272
2010-09-09 06:50:02 51°16.624 2°52.921 20.3161 0.073902 0.412666 -0.861272
2010-09-09 06:50:06 51°16.637 2°52.912 20.3169 0.074006 0.413267 -0.861272
2010-09-09 06:50:12 51°16.656 2°52.9 20.3179 0.074006 0.413267 -0.861272
2010-09-09 06:50:17 51°16.672 2°52.889 20.3186 0.074006 0.413267 -0.826448
2010-09-09 06:50:22 51°16.688 2°52.878 20.319 0.073902 0.412666 -0.826448
2010-09-09 06:50:27 51°16.704 2°52.866 20.3197 0.073902 0.412673 -0.861272
2010-09-09 06:50:32 51°16.72 2°52.856 20.3203 0.073902 0.412666 -0.826448
2010-09-09 06:50:37 51°16.736 2°52.846 20.321 0.073902 0.412666 -0.826448
2010-09-09 06:50:42 51°16.752 2°52.835 20.3217 0.073902 0.412666 -0.826448
2010-09-09 06:50:47 51°16.768 2°52.825 20.322 0.073902 0.412673 -0.826448
2010-09-09 06:50:52 51°16.784 2°52.815 20.3226 0.073902 0.412673 -0.826448
2010-09-09 06:50:57 51°16.799 2°52.805 20.3231 0.073902 0.412673 -0.826448
2010-09-09 06:51:01 51°16.812 2°52.798 20.324 0.073902 0.412673 -0.861272
2010-09-09 06:51:07 51°16.831 2°52.787 20.3246 0.073902 0.412666 -0.826448
2010-09-09 06:51:12 51°16.846 2°52.778 20.3253 0.073902 0.412666 -0.826448
2010-09-09 06:51:17 51°16.862 2°52.77 20.3265 0.073902 0.412673 -0.826448
2010-09-09 06:51:22 51°16.878 2°52.762 20.3273 0.073902 0.412673 -0.861272
2010-09-09 06:51:27 51°16.894 2°52.754 20.3347 0.074006 0.413274 -0.826448
2010-09-09 06:51:32 51°16.909 2°52.746 20.3502 0.073902 0.41268 -0.861272
2010-09-09 06:51:37 51°16.925 2°52.739 20.3551 0.073902 0.41268 -0.826448
2010-09-09 06:51:41 51°16.938 2°52.732 20.3584 0.073902 0.41268 -0.826448
2010-09-09 06:51:47 51°16.958 2°52.723 20.3587 0.074006 0.413281 -0.861272
2010-09-09 06:51:52 51°16.974 2°52.715 20.3589 0.074006 0.413281 -0.861272
2010-09-09 06:51:57 51°16.99 2°52.707 20.3596 0.073902 0.412693 -0.826448
2010-09-09 06:52:02 51°17.006 2°52.699 20.3607 0.074006 0.41326 -0.826448
2010-09-09 06:52:06 51°17.019 2°52.692 20.3618 0.074006 0.413274 -0.861272
2010-09-09 06:52:12 51°17.039 2°52.683 20.3633 0.074006 0.413274 -0.861272
2010-09-09 06:52:17 51°17.055 2°52.675 20.3656 0.073902 0.412686 -0.826448
2010-09-09 06:52:22 51°17.071 2°52.667 20.3673 0.074006 0.413288 -0.861272
2010-09-09 06:52:27 51°17.087 2°52.658 20.3681 0.074006 0.413288 -0.826448
2010-09-09 06:52:32 51°17.103 2°52.649 20.3693 0.074006 0.413281 -0.826448
2010-09-09 06:52:37 51°17.119 2°52.641 20.3697 0.074006 0.413288 -0.861272
2010-09-09 06:52:42 51°17.135 2°52.632 20.3708 0.074006 0.413288 -0.861272
2010-09-09 06:52:47 51°17.151 2°52.624 20.3712 0.074006 0.413281 -0.826448
2010-09-09 06:52:52 51°17.167 2°52.616 20.3723 0.073902 0.412686 -0.861272
2010-09-09 06:52:57 51°17.183 2°52.608 20.3732 0.073902 0.412693 -0.861272
2010-09-09 06:53:02 51°17.199 2°52.6 20.3739 0.073902 0.4127 -0.826448
2010-09-09 06:53:07 51°17.215 2°52.592 20.3748 0.074006 0.413301 -0.826448
2010-09-09 06:53:12 51°17.231 2°52.584 20.3762 0.074006 0.413301 -0.826448
2010-09-09 06:53:17 51°17.248 2°52.578 20.3768 0.074006 0.413281 -0.861272
2010-09-09 06:53:22 51°17.264 2°52.571 20.3779 0.073902 0.412693 -0.861272
2010-09-09 06:53:27 51°17.281 2°52.566 20.3792 0.074006 0.413301 -0.826448
2010-09-09 06:53:32 51°17.297 2°52.563 20.3804 0.073902 0.412693 -0.826448
2010-09-09 06:53:37 51°17.314 2°52.562 20.3812 0.073902 0.41268 -0.861272
2010-09-09 06:53:41 51°17.327 2°52.561 20.3821 0.073902 0.41268 -0.861272
2010-09-09 06:53:47 51°17.347 2°52.563 20.3832 0.074006 0.413267 -0.826448
2010-09-09 06:53:52 51°17.363 2°52.565 20.3846 0.074006 0.413281 -0.826448
2010-09-09 06:53:57 51°17.379 2°52.57 20.3853 0.073902 0.412686 -0.826448
2010-09-09 06:54:01 51°17.391 2°52.576 20.3866 0.073902 0.412693 -0.791624
2010-09-09 06:54:07 51°17.41 2°52.585 20.3876 0.073902 0.412707 -0.791624
2010-09-09 06:54:12 51°17.424 2°52.596 20.3889 0.073902 0.412707 -0.791624
2010-09-09 06:54:17 51°17.439 2°52.605 20.3903 0.074006 0.413295 -0.826448
2010-09-09 06:54:22 51°17.453 2°52.618 20.3914 0.074006 0.413274 -0.826448
2010-09-09 06:54:27 51°17.467 2°52.631 20.3925 0.073902 0.41268 -0.826448
2010-09-09 06:54:32 51°17.48 2°52.645 20.3937 0.073902 0.41268 -0.826448
2010-09-09 06:54:37 51°17.493 2°52.66 20.395 0.074006 0.413308 -0.861272
2010-09-09 06:54:42 51°17.506 2°52.674 20.3962 0.074006 0.413308 -0.861272
2010-09-09 06:54:46 51°17.516 2°52.689 20.397 0.073902 0.412762 -0.826448
2010-09-09 06:54:52 51°17.53 2°52.708 20.3976 0.073902 0.412782 -0.826448
2010-09-09 06:54:57 51°17.541 2°52.727 20.399 0.074006 0.41339 -0.861272
2010-09-09 06:55:02 51°17.553 2°52.745 20.4001 0.074006 0.41339 -0.826448
2010-09-09 06:55:07 51°17.563 2°52.764 20.4011 0.073902 0.412755 -0.826448
2010-09-09 06:55:12 51°17.574 2°52.782 20.4023 0.073902 0.412755 -0.826448
2010-09-09 06:55:17 51°17.585 2°52.802 20.4031 0.073902 0.412727 -0.861272
2010-09-09 06:55:22 51°17.595 2°52.821 20.4044 0.073902 0.412693 -0.826448
2010-09-09 06:55:27 51°17.606 2°52.84 20.4051 0.074006 0.413267 -0.826448
2010-09-09 06:55:32 51°17.616 2°52.86 20.406 0.073902 0.412652 -0.861272
2010-09-09 06:55:37 51°17.628 2°52.878 20.407 0.073902 0.412693 -0.861272
2010-09-09 06:55:41 51°17.636 2°52.893 20.4076 0.073902 0.412693 -0.861272
2010-09-09 06:55:47 51°17.649 2°52.916 20.4085 0.074006 0.413295 -0.861272
2010-09-09 06:55:52 51°17.66 2°52.936 20.4095 0.073902 0.412707 -0.861272
2010-09-09 06:55:57 51°17.671 2°52.954 20.4106 0.073902 0.412721 -0.861272
2010-09-09 06:56:02 51°17.681 2°52.974 20.4112 0.073902 0.412707 -0.861272
2010-09-09 06:56:06 51°17.69 2°52.988 20.4125 0.073902 0.412721 -0.861272
2010-09-09 06:56:12 51°17.703 2°53.011 20.4134 0.073902 0.412721 -0.861272
2010-09-09 06:56:17 51°17.714 2°53.029 20.4146 0.074006 0.413295 -0.826448
2010-09-09 06:56:22 51°17.726 2°53.047 20.4154 0.074006 0.413281 -0.826448
2010-09-09 06:56:27 51°17.737 2°53.065 20.4163 0.073902 0.412686 -0.826448
2010-09-09 06:56:32 51°17.748 2°53.083 20.4177 0.073902 0.41268 -0.861272
2010-09-09 06:56:37 51°17.76 2°53.1 20.4178 0.073902 0.4127 -0.826448
2010-09-09 06:56:42 51°17.772 2°53.118 20.4195 0.073902 0.4127 -0.826448
2010-09-09 06:56:46 51°17.782 2°53.13 20.4203 0.073902 0.4127 -0.861272
2010-09-09 06:56:52 51°17.796 2°53.15 20.4208 0.073902 0.412721 -0.861272
2010-09-09 06:56:57 51°17.809 2°53.166 20.4222 0.074006 0.413329 -0.826448
2010-09-09 06:57:02 51°17.822 2°53.181 20.4231 0.073902 0.412714 -0.826448
2010-09-09 06:57:07 51°17.835 2°53.197 20.424 0.073902 0.412707 -0.861272
2010-09-09 06:57:12 51°17.847 2°53.212 20.4248 0.073902 0.412707 -0.861272
2010-09-09 06:57:17 51°17.86 2°53.228 20.4254 0.074006 0.413288 -0.861272
2010-09-09 06:57:22 51°17.873 2°53.243 20.4262 0.074006 0.413288 -0.861272
2010-09-09 06:57:27 51°17.886 2°53.258 20.4274 0.073902 0.4127 -0.861272
2010-09-09 06:57:32 51°17.899 2°53.273 20.4283 0.073902 0.412693 -0.826448
2010-09-09 06:57:37 51°17.912 2°53.288 20.4291 0.073902 0.412693 -0.826448
2010-09-09 06:57:42 51°17.924 2°53.304 20.4303 0.073902 0.412693 -0.826448
2010-09-09 06:57:47 51°17.937 2°53.318 20.4312 0.074006 0.413308 -0.861272
2010-09-09 06:57:52 51°17.95 2°53.334 20.4323 0.073902 0.412721 -0.861272
2010-09-09 06:57:57 51°17.963 2°53.348 20.4333 0.073902 0.412721 -0.826448
2010-09-09 06:58:02 51°17.976 2°53.364 20.4348 0.073902 0.412727 -0.861272
2010-09-09 06:58:07 51°17.989 2°53.378 20.4363 0.073902 0.412707 -0.826448
2010-09-09 06:58:12 51°18.002 2°53.394 20.4378 0.073902 0.412707 -0.826448
2010-09-09 06:58:17 51°18.015 2°53.409 20.4391 0.073902 0.412721 -0.826448
2010-09-09 06:58:21 51°18.025 2°53.421 20.4401 0.073902 0.412714 -0.826448
2010-09-09 06:58:27 51°18.04 2°53.439 20.4415 0.073902 0.412714 -0.826448
2010-09-09 06:58:32 51°18.053 2°53.454 20.4426 0.073902 0.412714 -0.826448
2010-09-09 06:58:37 51°18.066 2°53.469 20.444 0.073902 0.412714 -0.826448
2010-09-09 06:58:41 51°18.076 2°53.481 20.4458 0.073902 0.412714 -0.826448
2010-09-09 06:58:47 51°18.092 2°53.5 20.4468 0.073902 0.412721 -0.861272
2010-09-09 06:58:52 51°18.105 2°53.514 20.448 0.074006 0.413322 -0.826448
2010-09-09 06:58:57 51°18.118 2°53.529 20.4496 0.073902 0.412727 -0.861272
2010-09-09 06:59:02 51°18.131 2°53.543 20.4506 0.073902 0.412727 -0.861272
2010-09-09 06:59:07 51°18.144 2°53.559 20.452 0.073902 0.412727 -0.826448
2010-09-09 06:59:12 51°18.157 2°53.573 20.4531 0.073902 0.412727 -0.826448
2010-09-09 06:59:17 51°18.17 2°53.589 20.4541 0.073902 0.412721 -0.826448
2010-09-09 06:59:22 51°18.183 2°53.603 20.4561 0.073902 0.412741 -0.861272
2010-09-09 06:59:27 51°18.196 2°53.619 20.4572 0.073902 0.412721 -0.861272
2010-09-09 06:59:32 51°18.209 2°53.633 20.4584 0.073902 0.412734 -0.861272
2010-09-09 06:59:37 51°18.222 2°53.647 20.4597 0.073902 0.412741 -0.896096
2010-09-09 06:59:42 51°18.235 2°53.662 20.4612 0.073902 0.412741 -0.896096
2010-09-09 06:59:47 51°18.248 2°53.676 20.4624 0.074006 0.413336 -0.826448
2010-09-09 06:59:52 51°18.261 2°53.692 20.4638 0.073902 0.412734 -0.861272
2010-09-09 06:59:57 51°18.275 2°53.706 20.4651 0.074006 0.413336 -0.861272
2010-09-09 07:00:01 51°18.285 2°53.718 20.4663 0.074006 0.413322 -0.861272
2010-09-09 07:00:07 51°18.301 2°53.735 20.4674 0.074006 0.413336 -0.826448
2010-09-09 07:00:12 51°18.314 2°53.75 20.4692 0.074006 0.413336 -0.826448
2010-09-09 07:00:17 51°18.327 2°53.764 20.4698 0.073902 0.412734 -0.861272
2010-09-09 07:00:21 51°18.337 2°53.776 20.4716 0.073902 0.412727 -0.826448
2010-09-09 07:00:27 51°18.354 2°53.791 20.4724 0.074006 0.413349 -0.826448
2010-09-09 07:00:32 51°18.367 2°53.806 20.4741 0.074006 0.413329 -0.826448
2010-09-09 07:00:37 51°18.381 2°53.818 20.4747 0.073902 0.412741 -0.861272
2010-09-09 07:00:42 51°18.394 2°53.832 20.4771 0.073902 0.412741 -0.861272
2010-09-09 07:00:46 51°18.405 2°53.841 20.4779 0.073902 0.412748 -0.826448
2010-09-09 07:00:52 51°18.422 2°53.858 20.4798 0.073902 0.412741 -0.861272
2010-09-09 07:00:57 51°18.435 2°53.871 20.4814 0.073902 0.412762 -0.861272
2010-09-09 07:01:02 51°18.449 2°53.883 20.4827 0.073902 0.412741 -0.826448
2010-09-09 07:01:07 51°18.463 2°53.897 20.4842 0.073902 0.412734 -0.861272
2010-09-09 07:01:12 51°18.477 2°53.91 20.4854 0.073902 0.412734 -0.861272
2010-09-09 07:01:17 51°18.49 2°53.923 20.4874 0.074006 0.413322 -0.861272
2010-09-09 07:01:22 51°18.504 2°53.935 20.4887 0.074006 0.413343 -0.861272
2010-09-09 07:01:26 51°18.515 2°53.946 20.4902 0.073902 0.412734 -0.861272
2010-09-09 07:01:32 51°18.531 2°53.962 20.492 0.073902 0.412734 -0.826448
2010-09-09 07:01:37 51°18.545 2°53.975 20.4936 0.074006 0.413329 -0.861272
2010-09-09 07:01:42 51°18.558 2°53.989 20.4951 0.074006 0.413329 -0.861272
2010-09-09 07:01:47 51°18.572 2°54.002 20.4961 0.073902 0.412734 -0.861272
2010-09-09 07:01:52 51°18.586 2°54.015 20.4976 0.073902 0.412741 -0.861272
2010-09-09 07:01:57 51°18.599 2°54.029 20.4993 0.073902 0.412741 -0.826448
2010-09-09 07:02:02 51°18.614 2°54.041 20.5005 0.074006 0.413349 -0.861272
2010-09-09 07:02:07 51°18.627 2°54.055 20.5025 0.073902 0.412741 -0.826448
2010-09-09 07:02:12 51°18.641 2°54.067 20.5035 0.073902 0.412741 -0.826448
2010-09-09 07:02:17 51°18.655 2°54.081 20.5051 0.073902 0.412741 -0.861272
2010-09-09 07:02:21 51°18.666 2°54.09 20.5067 0.074006 0.413356 -0.861272
2010-09-09 07:02:27 51°18.682 2°54.106 20.5082 0.073902 0.412734 -0.826448
2010-09-09 07:02:32 51°18.696 2°54.118 20.509 0.073902 0.412755 -0.861272
2010-09-09 07:02:37 51°18.71 2°54.132 20.5111 0.073902 0.412741 -0.826448
2010-09-09 07:02:42 51°18.724 2°54.144 20.5219 0.073902 0.412741 -0.826448
2010-09-09 07:02:47 51°18.737 2°54.158 20.5609 0.074006 0.413343 -0.791624
2010-09-09 07:02:52 51°18.751 2°54.17 20.586 0.073902 0.412762 -0.826448
2010-09-09 07:02:57 51°18.765 2°54.184 20.5885 0.073902 0.412748 -0.826448
2010-09-09 07:03:02 51°18.779 2°54.196 20.588 0.074006 0.413343 -0.861272
2010-09-09 07:03:07 51°18.792 2°54.209 20.5678 0.073902 0.412741 -0.826448
2010-09-09 07:03:12 51°18.806 2°54.222 20.6556 0.073902 0.412741 -0.826448
2010-09-09 07:03:17 51°18.82 2°54.236 20.7123 0.073902 0.412741 -0.826448
2010-09-09 07:03:21 51°18.831 2°54.247 20.6469 0.074006 0.413336 -0.861272
2010-09-09 07:03:27 51°18.847 2°54.263 20.5849 0.073902 0.412748 -0.826448
2010-09-09 07:03:32 51°18.86 2°54.278 20.708 0.073902 0.412741 -0.826448
2010-09-09 07:03:37 51°18.873 2°54.292 20.5842 0.073902 0.412762 -0.861272
2010-09-09 07:03:42 51°18.886 2°54.308 20.7358 0.073902 0.412762 -0.861272
2010-09-09 07:03:47 51°18.899 2°54.322 20.7638 0.074006 0.413343 -0.826448
2010-09-09 07:03:52 51°18.912 2°54.338 20.7663 0.073902 0.412755 -0.861272
2010-09-09 07:03:57 51°18.924 2°54.353 20.682 0.073902 0.412755 -0.826448
2010-09-09 07:04:02 51°18.937 2°54.369 20.6879 0.073902 0.412762 -0.826448
2010-09-09 07:04:07 51°18.95 2°54.384 20.7417 0.073902 0.412762 -0.826448
2010-09-09 07:04:12 51°18.962 2°54.4 20.693 0.073902 0.412762 -0.826448
2010-09-09 07:04:17 51°18.975 2°54.415 20.7863 0.073902 0.412762 -0.861272
2010-09-09 07:04:22 51°18.987 2°54.432 20.7974 0.074006 0.413336 -0.826448
2010-09-09 07:04:27 51°19 2°54.447 20.7615 0.073902 0.412762 -0.826448
2010-09-09 07:04:32 51°19.012 2°54.463 20.6938 0.073902 0.412755 -0.861272
2010-09-09 07:04:37 51°19.025 2°54.478 20.7441 0.073902 0.412769 -0.826448
2010-09-09 07:04:42 51°19.038 2°54.494 20.788 0.073902 0.412769 -0.826448
2010-09-09 07:04:47 51°19.05 2°54.509 20.7552 0.074006 0.413349 -0.826448
2010-09-09 07:04:52 51°19.063 2°54.525 20.777 0.074006 0.413363 -0.861272
2010-09-09 07:04:57 51°19.076 2°54.54 20.7509 0.073902 0.412769 -0.826448
2010-09-09 07:05:01 51°19.086 2°54.553 20.7511 0.074006 0.413356 -0.861272
2010-09-09 07:05:07 51°19.101 2°54.572 20.7407 0.073902 0.412762 -0.861272
2010-09-09 07:05:12 51°19.113 2°54.588 20.8086 0.073902 0.412762 -0.861272
2010-09-09 07:05:17 51°19.126 2°54.604 20.7165 0.073902 0.412755 -0.826448
2010-09-09 07:05:22 51°19.139 2°54.619 20.8427 0.073902 0.412769 -0.826448
2010-09-09 07:05:26 51°19.149 2°54.632 20.7538 0.074006 0.413349 -0.861272
2010-09-09 07:05:32 51°19.164 2°54.65 20.7575 0.074006 0.413363 -0.826448
2010-09-09 07:05:37 51°19.177 2°54.666 20.7537 0.073902 0.412762 -0.826448
2010-09-09 07:05:42 51°19.19 2°54.681 20.7722 0.073902 0.412762 -0.826448
2010-09-09 07:05:47 51°19.202 2°54.696 20.7016 0.073902 0.412762 -0.861272
2010-09-09 07:05:52 51°19.215 2°54.712 20.8319 0.073902 0.412775 -0.826448
2010-09-09 07:05:57 51°19.228 2°54.727 20.7058 0.074006 0.413363 -0.826448
2010-09-09 07:06:02 51°19.241 2°54.743 20.784 0.073902 0.412769 -0.826448
2010-09-09 07:06:07 51°19.254 2°54.758 20.7482 0.073902 0.412775 -0.861272
2010-09-09 07:06:12 51°19.266 2°54.774 20.7786 0.073902 0.412775 -0.861272
2010-09-09 07:06:17 51°19.279 2°54.789 20.7309 0.073902 0.412762 -0.826448
2010-09-09 07:06:22 51°19.292 2°54.805 20.782 0.073902 0.412769 -0.861272
2010-09-09 07:06:27 51°19.305 2°54.821 20.7401 0.073902 0.412775 -0.861272
2010-09-09 07:06:32 51°19.317 2°54.836 20.7949 0.074006 0.413363 -0.826448
2010-09-09 07:06:37 51°19.33 2°54.852 20.6976 0.074006 0.413377 -0.826448
2010-09-09 07:06:42 51°19.343 2°54.868 20.8128 0.074006 0.413377 -0.826448
2010-09-09 07:06:47 51°19.356 2°54.884 20.713 0.073902 0.412762 -0.826448
2010-09-09 07:06:52 51°19.368 2°54.899 20.7967 0.073902 0.412789 -0.826448
2010-09-09 07:06:57 51°19.381 2°54.914 20.6505 0.073902 0.412762 -0.826448
2010-09-09 07:07:01 51°19.392 2°54.926 20.852 0.073902 0.412775 -0.861272
2010-09-09 07:07:07 51°19.407 2°54.945 20.697 0.073902 0.412796 -0.861272
2010-09-09 07:07:12 51°19.42 2°54.96 20.7879 0.073902 0.412796 -0.861272
2010-09-09 07:07:17 51°19.433 2°54.976 20.7601 0.073902 0.412769 -0.826448
2010-09-09 07:07:22 51°19.445 2°54.991 20.7827 0.073902 0.412796 -0.861272
2010-09-09 07:07:26 51°19.455 2°55.004 20.7538 0.073902 0.412782 -0.826448
2010-09-09 07:07:32 51°19.47 2°55.023 20.7314 0.073902 0.412769 -0.826448
2010-09-09 07:07:37 51°19.484 2°55.037 20.7401 0.073902 0.412789 -0.861272
2010-09-09 07:07:42 51°19.496 2°55.054 20.7281 0.073902 0.412789 -0.861272
2010-09-09 07:07:47 51°19.509 2°55.068 20.7724 0.073902 0.412769 -0.861272
2010-09-09 07:07:52 51°19.521 2°55.085 20.782 0.073902 0.412775 -0.826448
2010-09-09 07:07:57 51°19.534 2°55.1 20.7714 0.073902 0.412782 -0.861272
2010-09-09 07:08:02 51°19.547 2°55.116 20.7873 0.074006 0.41337 -0.826448
2010-09-09 07:08:06 51°19.557 2°55.128 20.7339 0.073902 0.412789 -0.826448
2010-09-09 07:08:12 51°19.572 2°55.147 20.7643 0.073902 0.412789 -0.826448
2010-09-09 07:08:17 51°19.585 2°55.161 20.7869 0.074006 0.413384 -0.826448
2010-09-09 07:08:22 51°19.597 2°55.178 20.7508 0.073902 0.412775 -0.861272
2010-09-09 07:08:27 51°19.611 2°55.192 20.7487 0.073902 0.412789 -0.826448
2010-09-09 07:08:32 51°19.623 2°55.208 20.7765 0.073902 0.412782 -0.826448
2010-09-09 07:08:37 51°19.636 2°55.223 20.7561 0.073902 0.412775 -0.861272
2010-09-09 07:08:42 51°19.648 2°55.238 20.7738 0.073902 0.412775 -0.861272
2010-09-09 07:08:47 51°19.661 2°55.253 20.7344 0.073902 0.412775 -0.861272
2010-09-09 07:08:52 51°19.674 2°55.269 20.6661 0.073902 0.412782 -0.861272
2010-09-09 07:08:57 51°19.687 2°55.284 20.7618 0.073902 0.412782 -0.861272
2010-09-09 07:09:01 51°19.697 2°55.296 20.7155 0.073902 0.412775 -0.826448
2010-09-09 07:09:07 51°19.712 2°55.314 20.763 0.073902 0.412782 -0.861272
2010-09-09 07:09:12 51°19.725 2°55.329 20.7396 0.073902 0.412782 -0.861272
2010-09-09 07:09:17 51°19.737 2°55.344 20.73 0.073902 0.412782 -0.861272
2010-09-09 07:09:22 51°19.75 2°55.36 20.7587 0.073902 0.412775 -0.826448
2010-09-09 07:09:27 51°19.762 2°55.375 20.7019 0.073902 0.412775 -0.861272
2010-09-09 07:09:32 51°19.775 2°55.39 20.7147 0.073902 0.412782 -0.861272
2010-09-09 07:09:37 51°19.788 2°55.406 20.7223 0.073902 0.412782 -0.826448
2010-09-09 07:09:42 51°19.8 2°55.421 20.7893 0.073902 0.412782 -0.826448
2010-09-09 07:09:47 51°19.813 2°55.437 20.7469 0.073902 0.412775 -0.861272
2010-09-09 07:09:52 51°19.826 2°55.452 20.7766 0.073902 0.412789 -0.826448
2010-09-09 07:09:57 51°19.838 2°55.468 20.6812 0.073902 0.412789 -0.826448
2010-09-09 07:10:01 51°19.849 2°55.479 20.7505 0.073902 0.412803 -0.861272
2010-09-09 07:10:07 51°19.864 2°55.498 20.7472 0.074006 0.413384 -0.826448
2010-09-09 07:10:12 51°19.877 2°55.513 20.7548 0.074006 0.413384 -0.826448
2010-09-09 07:10:17 51°19.89 2°55.528 20.7706 0.073902 0.412789 -0.826448
2010-09-09 07:10:22 51°19.902 2°55.544 20.7584 0.073902 0.412789 -0.826448
2010-09-09 07:10:27 51°19.915 2°55.558 20.7592 0.073902 0.412796 -0.861272
2010-09-09 07:10:32 51°19.928 2°55.574 20.7141 0.073902 0.412789 -0.861272
2010-09-09 07:10:37 51°19.941 2°55.588 20.7252 0.073902 0.412782 -0.861272
2010-09-09 07:10:42 51°19.954 2°55.604 20.7239 0.073902 0.412782 -0.861272
2010-09-09 07:10:47 51°19.967 2°55.619 20.7416 0.073902 0.412796 -0.826448
2010-09-09 07:10:52 51°19.979 2°55.634 20.7134 0.073902 0.412782 -0.861272
2010-09-09 07:10:57 51°19.992 2°55.649 20.764 0.073902 0.412789 -0.826448
2010-09-09 07:11:02 51°20.004 2°55.664 20.755 0.073902 0.412796 -0.861272
2010-09-09 07:11:07 51°20.017 2°55.68 20.7397 0.074006 0.41339 -0.826448
2010-09-09 07:11:12 51°20.03 2°55.695 20.7408 0.074006 0.41339 -0.826448
2010-09-09 07:11:17 51°20.042 2°55.711 20.7292 0.073902 0.41281 -0.861272
2010-09-09 07:11:21 51°20.053 2°55.722 20.7526 0.074006 0.413397 -0.861272
2010-09-09 07:11:27 51°20.068 2°55.741 20.6939 0.073902 0.412796 -0.861272
2010-09-09 07:11:32 51°20.081 2°55.755 20.757 0.073902 0.412796 -0.791624
2010-09-09 07:11:37 51°20.093 2°55.771 20.7276 0.073902 0.412796 -0.861272
2010-09-09 07:11:41 51°20.104 2°55.782 20.7481 0.073902 0.412796 -0.861272
2010-09-09 07:11:47 51°20.118 2°55.801 20.7012 0.073902 0.412789 -0.861272
2010-09-09 07:11:52 51°20.131 2°55.816 20.7697 0.073902 0.412803 -0.826448
2010-09-09 07:11:57 51°20.144 2°55.831 20.7379 0.073902 0.412803 -0.861272
2010-09-09 07:12:02 51°20.157 2°55.846 20.7648 0.074006 0.413404 -0.826448
2010-09-09 07:12:06 51°20.166 2°55.858 20.7413 0.073902 0.412796 -0.826448
2010-09-09 07:12:12 51°20.182 2°55.876 20.7223 0.073902 0.412796 -0.826448
2010-09-09 07:12:17 51°20.194 2°55.892 20.7519 0.074006 0.413397 -0.861272
2010-09-09 07:12:22 51°20.206 2°55.907 20.7474 0.073902 0.412803 -0.826448
2010-09-09 07:12:27 51°20.219 2°55.922 20.7519 0.073902 0.41281 -0.826448
2010-09-09 07:12:32 51°20.232 2°55.937 20.753 0.074006 0.413404 -0.826448
2010-09-09 07:12:37 51°20.244 2°55.952 20.72 0.073902 0.412796 -0.826448
2010-09-09 07:12:42 51°20.257 2°55.967 20.7399 0.073902 0.412796 -0.826448
2010-09-09 07:12:47 51°20.27 2°55.981 20.7551 0.073902 0.412803 -0.861272
2010-09-09 07:12:52 51°20.282 2°55.996 20.7472 0.073902 0.412796 -0.861272
2010-09-09 07:12:57 51°20.295 2°56.011 20.7417 0.073902 0.412803 -0.826448
2010-09-09 07:13:02 51°20.308 2°56.026 20.7663 0.073902 0.41281 -0.861272
2010-09-09 07:13:07 51°20.321 2°56.042 20.7688 0.073902 0.41281 -0.861272
2010-09-09 07:13:12 51°20.334 2°56.056 20.7071 0.073902 0.41281 -0.861272
2010-09-09 07:13:17 51°20.346 2°56.072 20.7305 0.073902 0.412803 -0.826448
2010-09-09 07:13:21 51°20.356 2°56.083 20.7324 0.074006 0.41339 -0.861272
2010-09-09 07:13:27 51°20.372 2°56.101 20.6987 0.073902 0.412816 -0.861272
2010-09-09 07:13:32 51°20.385 2°56.116 20.7321 0.073902 0.412816 -0.861272
2010-09-09 07:13:37 51°20.397 2°56.131 20.7442 0.073902 0.412796 -0.861272
2010-09-09 07:13:42 51°20.41 2°56.146 20.7505 0.073902 0.412796 -0.861272
2010-09-09 07:13:47 51°20.422 2°56.161 20.7498 0.073902 0.412796 -0.861272
2010-09-09 07:13:52 51°20.435 2°56.176 20.7094 0.073902 0.412796 -0.861272
2010-09-09 07:13:57 51°20.448 2°56.191 20.7451 0.073902 0.412816 -0.826448
2010-09-09 07:14:02 51°20.46 2°56.207 20.7253 0.073902 0.41281 -0.861272
2010-09-09 07:14:06 51°20.47 2°56.218 20.7264 0.073902 0.412823 -0.861272
2010-09-09 07:14:12 51°20.486 2°56.236 20.7468 0.073902 0.412823 -0.861272
2010-09-09 07:14:17 51°20.498 2°56.25 20.7115 0.073902 0.41281 -0.826448
2010-09-09 07:14:21 51°20.508 2°56.262 20.7407 0.073902 0.412823 -0.826448
2010-09-09 07:14:27 51°20.524 2°56.28 20.7166 0.073902 0.412816 -0.826448
2010-09-09 07:14:32 51°20.536 2°56.295 20.7557 0.073902 0.412816 -0.791624
2010-09-09 07:14:37 51°20.549 2°56.31 20.7269 0.073902 0.412816 -0.826448
2010-09-09 07:14:42 51°20.562 2°56.324 20.7491 0.073902 0.412816 -0.826448
2010-09-09 07:14:46 51°20.571 2°56.337 20.721 0.073902 0.412816 -0.861272
2010-09-09 07:14:52 51°20.587 2°56.354 20.7252 0.074006 0.413425 -0.791624
2010-09-09 07:14:57 51°20.599 2°56.37 20.7243 0.073902 0.41281 -0.861272
2010-09-09 07:15:02 51°20.612 2°56.385 20.5144 0.073902 0.412816 -0.861272
2010-09-09 07:15:07 51°20.625 2°56.4 20.5783 0.073902 0.41281 -0.826448
2010-09-09 07:15:12 51°20.638 2°56.415 20.644 0.073902 0.41281 -0.826448
2010-09-09 07:15:17 51°20.65 2°56.431 20.6524 0.073902 0.412816 -0.826448
2010-09-09 07:15:22 51°20.663 2°56.445 20.6755 0.073902 0.412816 -0.861272
2010-09-09 07:15:27 51°20.676 2°56.461 20.6713 0.073902 0.41281 -0.826448
2010-09-09 07:15:32 51°20.689 2°56.475 20.6864 0.073902 0.412823 -0.826448
2010-09-09 07:15:37 51°20.701 2°56.49 20.6886 0.073902 0.412803 -0.826448
2010-09-09 07:15:42 51°20.714 2°56.505 20.6953 0.073902 0.412803 -0.826448
2010-09-09 07:15:47 51°20.727 2°56.519 20.6991 0.073902 0.412816 -0.791624
2010-09-09 07:15:52 51°20.74 2°56.534 20.7035 0.073902 0.412823 -0.861272
2010-09-09 07:15:57 51°20.753 2°56.549 20.7061 0.073902 0.41281 -0.826448
2010-09-09 07:16:01 51°20.763 2°56.561 20.7128 0.073902 0.412823 -0.861272
2010-09-09 07:16:07 51°20.778 2°56.579 20.7188 0.073902 0.412816 -0.826448
2010-09-09 07:16:12 51°20.791 2°56.593 20.7149 0.073902 0.412816 -0.826448
2010-09-09 07:16:17 51°20.804 2°56.608 20.7251 0.073902 0.412823 -0.861272
2010-09-09 07:16:21 51°20.814 2°56.62 20.7173 0.073902 0.41281 -0.826448
2010-09-09 07:16:27 51°20.83 2°56.637 20.7387 0.073902 0.412816 -0.826448
2010-09-09 07:16:32 51°20.843 2°56.654 20.7157 0.073902 0.412796 -0.826448
2010-09-09 07:16:37 51°20.856 2°56.667 20.7226 0.073902 0.412816 -0.826448
2010-09-09 07:16:42 51°20.868 2°56.683 20.6991 0.073902 0.412816 -0.826448
2010-09-09 07:16:46 51°20.88 2°56.693 20.7238 0.073902 0.412823 -0.826448
2010-09-09 07:16:52 51°20.894 2°56.713 20.7012 0.073902 0.41281 -0.826448
2010-09-09 07:16:57 51°20.908 2°56.726 20.7262 0.073902 0.412844 -0.791624
2010-09-09 07:17:02 51°20.92 2°56.743 20.7212 0.073902 0.412775 -0.826448
2010-09-09 07:17:07 51°20.933 2°56.756 20.7271 0.073902 0.412789 -0.861272
2010-09-09 07:17:12 51°20.945 2°56.772 20.7296 0.073902 0.412789 -0.861272
2010-09-09 07:17:17 51°20.958 2°56.787 20.7292 0.073902 0.412734 -0.861272
2010-09-09 07:17:22 51°20.971 2°56.802 20.7357 0.073902 0.412755 -0.861272
2010-09-09 07:17:27 51°20.984 2°56.816 20.7437 0.073902 0.412782 -0.861272
2010-09-09 07:17:32 51°20.997 2°56.831 20.7456 0.073902 0.41281 -0.826448
2010-09-09 07:17:37 51°21.01 2°56.846 20.7532 0.073902 0.412857 -0.861272
2010-09-09 07:17:42 51°21.022 2°56.861 20.7684 0.073902 0.412857 -0.861272
2010-09-09 07:17:47 51°21.035 2°56.876 20.7868 0.073902 0.412871 -0.861272
2010-09-09 07:17:52 51°21.048 2°56.891 20.7816 0.073902 0.412871 -0.791624
2010-09-09 07:17:57 51°21.06 2°56.906 20.7809 0.073902 0.412878 -0.861272
2010-09-09 07:18:02 51°21.073 2°56.921 20.786 0.073902 0.412851 -0.826448
2010-09-09 07:18:07 51°21.086 2°56.936 20.776 0.073902 0.412851 -0.826448
2010-09-09 07:18:12 51°21.099 2°56.95 20.8098 0.073902 0.412851 -0.826448
2010-09-09 07:18:17 51°21.111 2°56.965 20.7948 0.073902 0.412816 -0.826448
2010-09-09 07:18:21 51°21.122 2°56.977 20.803 0.073902 0.412816 -0.826448
2010-09-09 07:18:27 51°21.137 2°56.994 20.7884 0.074006 0.413397 -0.861272
2010-09-09 07:18:32 51°21.15 2°57.009 20.7996 0.073902 0.412803 -0.826448
2010-09-09 07:18:37 51°21.163 2°57.024 20.7906 0.073902 0.412823 -0.861272
2010-09-09 07:18:42 51°21.176 2°57.039 20.797 0.073902 0.412823 -0.861272
2010-09-09 07:18:46 51°21.186 2°57.05 20.8044 0.073902 0.41283 -0.826448
2010-09-09 07:18:52 51°21.201 2°57.069 20.7973 0.073902 0.41281 -0.861272
2010-09-09 07:18:57 51°21.214 2°57.083 20.804 0.073902 0.41283 -0.826448
2010-09-09 07:19:02 51°21.227 2°57.098 20.8064 0.073902 0.412823 -0.826448
2010-09-09 07:19:07 51°21.24 2°57.112 20.794 0.073902 0.412823 -0.826448
2010-09-09 07:19:12 51°21.253 2°57.127 20.8255 0.073902 0.412823 -0.826448
2010-09-09 07:19:17 51°21.265 2°57.142 20.8078 0.073902 0.41281 -0.861272
2010-09-09 07:19:21 51°21.276 2°57.153 20.8191 0.073902 0.412837 -0.826448
2010-09-09 07:19:27 51°21.291 2°57.171 20.8271 0.073902 0.412816 -0.826448
2010-09-09 07:19:32 51°21.305 2°57.186 20.8135 0.073902 0.412823 -0.826448
2010-09-09 07:19:37 51°21.319 2°57.2 20.8341 0.073902 0.412837 -0.861272
2010-09-09 07:19:42 51°21.331 2°57.216 20.8201 0.073902 0.412837 -0.861272
2010-09-09 07:19:47 51°21.344 2°57.23 20.8414 0.073902 0.412837 -0.826448
2010-09-09 07:19:52 51°21.356 2°57.246 20.837 0.073902 0.412823 -0.861272
2010-09-09 07:19:57 51°21.369 2°57.259 20.8436 0.073902 0.412851 -0.861272
2010-09-09 07:20:02 51°21.381 2°57.275 20.8512 0.073902 0.412823 -0.861272
2010-09-09 07:20:07 51°21.394 2°57.288 20.845 0.073902 0.412837 -0.861272
2010-09-09 07:20:12 51°21.407 2°57.304 20.854 0.073902 0.412837 -0.861272
2010-09-09 07:20:17 51°21.42 2°57.318 20.849 0.073902 0.412816 -0.861272
2010-09-09 07:20:21 51°21.43 2°57.33 20.8508 0.073902 0.412844 -0.861272
2010-09-09 07:20:27 51°21.445 2°57.348 20.859 0.073902 0.41283 -0.861272
2010-09-09 07:20:32 51°21.458 2°57.363 20.859 0.073902 0.412837 -0.826448
2010-09-09 07:20:37 51°21.471 2°57.378 20.8575 0.073902 0.412837 -0.826448
2010-09-09 07:20:42 51°21.484 2°57.393 20.8605 0.073902 0.412837 -0.826448
2010-09-09 07:20:47 51°21.497 2°57.408 20.8638 0.073902 0.412837 -0.861272
2010-09-09 07:20:52 51°21.51 2°57.423 20.8661 0.073902 0.412837 -0.791624
2010-09-09 07:20:57 51°21.522 2°57.437 20.861 0.073902 0.412837 -0.826448
2010-09-09 07:21:01 51°21.533 2°57.449 20.8744 0.073902 0.41283 -0.826448
2010-09-09 07:21:07 51°21.548 2°57.467 20.8321 0.073902 0.412837 -0.791624
2010-09-09 07:21:12 51°21.56 2°57.482 20.8531 0.073902 0.412837 -0.791624
2010-09-09 07:21:17 51°21.573 2°57.497 20.8539 0.073902 0.412844 -0.826448
2010-09-09 07:21:22 51°21.586 2°57.512 20.872 0.073902 0.412844 -0.861272
2010-09-09 07:21:26 51°21.595 2°57.524 20.8727 0.073902 0.412837 -0.791624
2010-09-09 07:21:32 51°21.611 2°57.542 20.8813 0.073902 0.412837 -0.826448
2010-09-09 07:21:37 51°21.624 2°57.557 20.8813 0.073902 0.412844 -0.861272
2010-09-09 07:21:42 51°21.636 2°57.571 20.8896 0.073902 0.412844 -0.861272
2010-09-09 07:21:47 51°21.648 2°57.586 20.8884 0.073902 0.412844 -0.826448
2010-09-09 07:21:52 51°21.661 2°57.602 20.894 0.073902 0.412844 -0.861272
2010-09-09 07:21:57 51°21.673 2°57.616 20.8977 0.073902 0.412844 -0.826448
2010-09-09 07:22:02 51°21.685 2°57.632 20.9019 0.073902 0.41283 -0.826448
2010-09-09 07:22:07 51°21.698 2°57.646 20.9007 0.073902 0.412844 -0.826448
2010-09-09 07:22:12 51°21.711 2°57.662 20.9049 0.073902 0.412844 -0.826448
2010-09-09 07:22:17 51°21.723 2°57.675 20.9032 0.073902 0.412837 -0.861272
2010-09-09 07:22:22 51°21.736 2°57.691 20.9153 0.073902 0.412857 -0.861272
2010-09-09 07:22:27 51°21.749 2°57.706 20.9098 0.073902 0.412851 -0.861272
2010-09-09 07:22:32 51°21.761 2°57.721 20.9193 0.073902 0.412851 -0.826448
2010-09-09 07:22:37 51°21.774 2°57.736 20.9142 0.073902 0.412851 -0.826448
2010-09-09 07:22:41 51°21.784 2°57.747 20.9287 0.073902 0.412851 -0.826448
2010-09-09 07:22:47 51°21.799 2°57.765 20.9217 0.073902 0.412851 -0.826448
2010-09-09 07:22:52 51°21.812 2°57.781 20.9232 0.073902 0.412857 -0.826448
2010-09-09 07:22:57 51°21.824 2°57.795 20.9329 0.073902 0.412844 -0.826448
2010-09-09 07:23:01 51°21.834 2°57.808 20.927 0.073902 0.412837 -0.826448
2010-09-09 07:23:07 51°21.85 2°57.825 20.9463 0.073902 0.412857 -0.861272
2010-09-09 07:23:12 51°21.862 2°57.841 20.9263 0.073902 0.412857 -0.861272
2010-09-09 07:23:17 51°21.875 2°57.854 20.9685 0.073902 0.412851 -0.861272
2010-09-09 07:23:22 51°21.886 2°57.871 20.9353 0.073902 0.412851 -0.826448
2010-09-09 07:23:26 51°21.897 2°57.881 20.9407 0.073902 0.412871 -0.826448
2010-09-09 07:23:32 51°21.912 2°57.899 20.9566 0.073902 0.412851 -0.826448
2010-09-09 07:23:37 51°21.925 2°57.914 20.9473 0.073902 0.412871 -0.826448
2010-09-09 07:23:42 51°21.938 2°57.929 20.9525 0.073902 0.412871 -0.826448
2010-09-09 07:23:47 51°21.951 2°57.944 20.9558 0.073902 0.412857 -0.826448
2010-09-09 07:23:52 51°21.963 2°57.959 20.9593 0.073902 0.412851 -0.826448
2010-09-09 07:23:57 51°21.976 2°57.974 20.9657 0.073902 0.412857 -0.861272
2010-09-09 07:24:02 51°21.988 2°57.99 20.9695 0.073902 0.412844 -0.826448
2010-09-09 07:24:07 51°22.001 2°58.005 20.9632 0.073902 0.412844 -0.861272
2010-09-09 07:24:12 51°22.014 2°58.02 20.9739 0.073902 0.412844 -0.861272
2010-09-09 07:24:17 51°22.026 2°58.035 20.9687 0.073902 0.412851 -0.861272
2010-09-09 07:24:22 51°22.039 2°58.05 20.9694 0.073902 0.412851 -0.826448
2010-09-09 07:24:27 51°22.051 2°58.065 20.9781 0.073902 0.412844 -0.896096
2010-09-09 07:24:32 51°22.064 2°58.08 20.9805 0.073902 0.412864 -0.826448
2010-09-09 07:24:37 51°22.076 2°58.096 20.9793 0.073902 0.412857 -0.826448
2010-09-09 07:24:41 51°22.086 2°58.108 20.9763 0.073902 0.412857 -0.826448
2010-09-09 07:24:47 51°22.101 2°58.126 20.9994 0.073902 0.412871 -0.826448
2010-09-09 07:24:52 51°22.113 2°58.142 20.9815 0.073902 0.412864 -0.826448
2010-09-09 07:24:57 51°22.126 2°58.157 21.0119 0.073902 0.412871 -0.826448
2010-09-09 07:25:02 51°22.137 2°58.173 20.991 0.073902 0.412851 -0.861272
2010-09-09 07:25:07 51°22.15 2°58.188 21.0072 0.073902 0.412864 -0.826448
2010-09-09 07:25:12 51°22.162 2°58.204 20.9888 0.073902 0.412864 -0.826448
2010-09-09 07:25:17 51°22.175 2°58.219 21.0226 0.073902 0.412885 -0.861272
2010-09-09 07:25:22 51°22.188 2°58.234 20.9991 0.073902 0.412851 -0.826448
2010-09-09 07:25:26 51°22.198 2°58.246 21.0109 0.073902 0.412878 -0.826448
2010-09-09 07:25:32 51°22.213 2°58.264 21.0158 0.073902 0.412871 -0.826448
2010-09-09 07:25:37 51°22.226 2°58.28 21.0102 0.073902 0.412871 -0.826448
2010-09-09 07:25:41 51°22.236 2°58.292 21.0227 0.073902 0.412871 -0.826448
2010-09-09 07:25:47 51°22.251 2°58.311 21.019 0.073902 0.412864 -0.826448
2010-09-09 07:25:52 51°22.265 2°58.325 21.026 0.073902 0.412871 -0.826448
2010-09-09 07:25:57 51°22.277 2°58.341 21.0323 0.073902 0.412871 -0.826448
2010-09-09 07:26:02 51°22.29 2°58.356 21.0291 0.073902 0.412871 -0.826448
2010-09-09 07:26:06 51°22.299 2°58.368 21.0377 0.073902 0.412864 -0.791624
2010-09-09 07:26:12 51°22.314 2°58.387 21.039 0.073902 0.412864 -0.791624
2010-09-09 07:26:17 51°22.326 2°58.403 21.0377 0.073902 0.412878 -0.861272
2010-09-09 07:26:22 51°22.339 2°58.418 21.0541 0.073902 0.412878 -0.826448
2010-09-09 07:26:27 51°22.351 2°58.434 21.0469 0.073902 0.412857 -0.826448
2010-09-09 07:26:32 51°22.364 2°58.449 21.0541 0.073902 0.412878 -0.826448
2010-09-09 07:26:37 51°22.377 2°58.466 21.0571 0.073902 0.412857 -0.861272
2010-09-09 07:26:42 51°22.389 2°58.481 21.0528 0.073902 0.412857 -0.861272
2010-09-09 07:26:47 51°22.402 2°58.497 21.0619 0.073902 0.412878 -0.826448
2010-09-09 07:26:52 51°22.414 2°58.512 21.0664 0.073902 0.412857 -0.826448
2010-09-09 07:26:57 51°22.427 2°58.528 21.0672 0.073902 0.412871 -0.861272
2010-09-09 07:27:01 51°22.437 2°58.541 21.0672 0.073902 0.412864 -0.861272
2010-09-09 07:27:07 51°22.453 2°58.559 21.0856 0.073902 0.412878 -0.861272
2010-09-09 07:27:12 51°22.465 2°58.575 21.073 0.073902 0.412878 -0.861272
2010-09-09 07:27:17 51°22.478 2°58.59 21.0853 0.073902 0.412871 -0.861272
2010-09-09 07:27:22 51°22.49 2°58.605 21.0839 0.073902 0.412871 -0.861272
2010-09-09 07:27:27 51°22.503 2°58.621 21.0818 0.073902 0.412871 -0.826448
2010-09-09 07:27:32 51°22.515 2°58.636 21.0945 0.073902 0.412871 -0.791624
2010-09-09 07:27:37 51°22.528 2°58.652 21.2129 0.073902 0.412885 -0.826448
2010-09-09 07:27:41 51°22.538 2°58.664 20.7054 0.073902 0.412885 -0.826448
2010-09-09 07:27:47 51°22.553 2°58.682 19.0658 0.073902 0.412885 -0.826448
2010-09-09 07:27:52 51°22.565 2°58.698 19.0644 0.073902 0.412885 -0.826448
2010-09-09 07:27:57 51°22.578 2°58.713 19.2823 0.073902 0.412878 -0.791624
2010-09-09 07:28:02 51°22.59 2°58.729 19.3304 0.073902 0.412878 -0.791624
2010-09-09 07:28:06 51°22.6 2°58.741 19.6125 0.073902 0.412892 -0.826448
2010-09-09 07:28:12 51°22.615 2°58.76 19.5585 0.073902 0.412892 -0.826448
2010-09-09 07:28:17 51°22.628 2°58.776 19.6076 0.073902 0.412878 -0.791624
2010-09-09 07:28:22 51°22.64 2°58.791 19.7773 0.073902 0.412878 -0.791624
2010-09-09 07:28:27 51°22.653 2°58.807 19.6224 0.073902 0.412885 -0.791624
2010-09-09 07:28:32 51°22.666 2°58.823 19.6479 0.073902 0.412892 -0.791624
2010-09-09 07:28:37 51°22.678 2°58.839 19.6528 0.073902 0.412885 -0.826448
2010-09-09 07:28:42 51°22.691 2°58.854 19.6273 0.073902 0.412885 -0.826448
2010-09-09 07:28:47 51°22.703 2°58.871 19.6833 0.073902 0.412885 -0.791624
2010-09-09 07:28:52 51°22.716 2°58.886 19.6519 0.073902 0.412885 -0.791624
2010-09-09 07:28:57 51°22.728 2°58.903 19.7982 0.073902 0.412885 -0.826448
2010-09-09 07:29:02 51°22.74 2°58.917 19.6735 0.073902 0.412905 -0.826448
2010-09-09 07:29:07 51°22.752 2°58.934 19.8328 0.073902 0.412892 -0.791624
2010-09-09 07:29:12 51°22.765 2°58.949 19.6715 0.073902 0.412892 -0.791624
2010-09-09 07:29:17 51°22.778 2°58.965 19.9538 0.073902 0.412898 -0.826448
2010-09-09 07:29:22 51°22.791 2°58.981 19.7894 0.073902 0.412905 -0.791624
2010-09-09 07:29:27 51°22.803 2°58.997 19.9686 0.073902 0.412892 -0.791624
2010-09-09 07:29:32 51°22.816 2°59.012 19.7543 0.073902 0.412892 -0.826448
2010-09-09 07:29:37 51°22.828 2°59.028 20.0263 0.073902 0.412898 -0.826448
2010-09-09 07:29:41 51°22.838 2°59.039 19.6954 0.073902 0.412898 -0.826448
2010-09-09 07:29:47 51°22.853 2°59.059 20.0237 0.073902 0.412892 -0.826448
2010-09-09 07:29:52 51°22.866 2°59.074 19.8917 0.073902 0.412919 -0.826448
2010-09-09 07:29:57 51°22.878 2°59.09 19.9203 0.073902 0.412885 -0.791624
2010-09-09 07:30:02 51°22.891 2°59.106 19.8929 0.073902 0.412905 -0.791624
2010-09-09 07:30:06 51°22.901 2°59.118 19.9081 0.073902 0.412905 -0.826448
2010-09-09 07:30:12 51°22.916 2°59.137 19.9815 0.073902 0.412905 -0.826448
2010-09-09 07:30:17 51°22.928 2°59.152 19.9891 0.073902 0.412898 -0.826448
2010-09-09 07:30:22 51°22.94 2°59.168 19.9394 0.073902 0.412898 -0.791624
2010-09-09 07:30:27 51°22.953 2°59.183 19.9578 0.073902 0.412898 -0.826448
2010-09-09 07:30:32 51°22.965 2°59.198 19.8944 0.073902 0.412905 -0.826448
2010-09-09 07:30:37 51°22.978 2°59.214 19.8787 0.073902 0.412898 -0.826448
2010-09-09 07:30:42 51°22.991 2°59.229 19.9493 0.073902 0.412898 -0.826448
2010-09-09 07:30:47 51°23.003 2°59.244 19.8622 0.073902 0.412898 -0.826448
2010-09-09 07:30:52 51°23.016 2°59.259 19.8936 0.073902 0.412892 -0.826448
2010-09-09 07:30:57 51°23.029 2°59.273 20.1089 0.073902 0.412912 -0.826448
2010-09-09 07:31:02 51°23.041 2°59.289 19.9158 0.073902 0.412892 -0.826448
2010-09-09 07:31:07 51°23.054 2°59.303 20.0702 0.073902 0.412905 -0.826448
2010-09-09 07:31:12 51°23.067 2°59.318 19.9406 0.073902 0.412905 -0.826448
2010-09-09 07:31:17 51°23.079 2°59.333 20.0961 0.073902 0.412885 -0.826448
2010-09-09 07:31:21 51°23.09 2°59.344 19.9729 0.073902 0.412905 -0.826448
2010-09-09 07:31:27 51°23.104 2°59.364 20.1023 0.073902 0.412892 -0.791624
2010-09-09 07:31:32 51°23.118 2°59.376 20.027 0.073902 0.412926 -0.791624
2010-09-09 07:31:37 51°23.129 2°59.394 19.9268 0.073902 0.412878 -0.791624
2010-09-09 07:31:42 51°23.142 2°59.407 20.0656 0.073902 0.412878 -0.791624
2010-09-09 07:31:47 51°23.154 2°59.422 19.9777 0.073902 0.412912 -0.826448
2010-09-09 07:31:52 51°23.167 2°59.438 20.1931 0.073902 0.412905 -0.826448
2010-09-09 07:31:57 51°23.18 2°59.451 19.9431 0.073902 0.412919 -0.826448
2010-09-09 07:32:02 51°23.192 2°59.467 20.032 0.073902 0.412892 -0.826448
2010-09-09 07:32:06 51°23.202 2°59.478 20.1169 0.073902 0.412912 -0.826448
2010-09-09 07:32:12 51°23.216 2°59.496 20.1014 0.073902 0.412912 -0.826448
2010-09-09 07:32:17 51°23.229 2°59.511 20.085 0.073902 0.412905 -0.826448
2010-09-09 07:32:21 51°23.239 2°59.523 20.0787 0.073902 0.412898 -0.826448
2010-09-09 07:32:27 51°23.254 2°59.54 20.0533 0.073902 0.412905 -0.791624
2010-09-09 07:32:32 51°23.266 2°59.555 20.0823 0.073902 0.412905 -0.861272
2010-09-09 07:32:37 51°23.279 2°59.57 20.1118 0.073902 0.412898 -0.826448
2010-09-09 07:32:42 51°23.292 2°59.584 20.1664 0.073902 0.412898 -0.826448
2010-09-09 07:32:46 51°23.302 2°59.596 20.0765 0.073902 0.412912 -0.826448
2010-09-09 07:32:52 51°23.316 2°59.614 20.0613 0.073902 0.412898 -0.826448
2010-09-09 07:32:57 51°23.329 2°59.629 20.2186 0.073902 0.412898 -0.7568
2010-09-09 07:33:02 51°23.342 2°59.644 20.0871 0.073902 0.412905 -0.791624
2010-09-09 07:33:07 51°23.354 2°59.659 20.1255 0.073902 0.412905 -0.826448
2010-09-09 07:33:12 51°23.366 2°59.674 20.2201 0.073902 0.412905 -0.826448
2010-09-09 07:33:17 51°23.379 2°59.689 20.075 0.073902 0.412905 -0.826448
2010-09-09 07:33:22 51°23.391 2°59.704 20.1609 0.073902 0.412905 -0.791624
2010-09-09 07:33:27 51°23.404 2°59.718 20.0963 0.073902 0.412919 -0.791624
2010-09-09 07:33:32 51°23.416 2°59.734 20.1026 0.073902 0.412905 -0.826448
2010-09-09 07:33:37 51°23.429 2°59.748 20.1575 0.073902 0.412912 -0.791624
2010-09-09 07:33:42 51°23.441 2°59.763 20.0992 0.073902 0.412912 -0.791624
2010-09-09 07:33:47 51°23.454 2°59.778 20.2745 0.073902 0.412898 -0.826448
2010-09-09 07:33:52 51°23.466 2°59.792 20.1084 0.073902 0.412912 -0.826448
2010-09-09 07:33:57 51°23.479 2°59.807 20.2217 0.073902 0.412905 -0.791624
2010-09-09 07:34:02 51°23.492 2°59.822 20.1515 0.073902 0.412905 -0.826448
2010-09-09 07:34:07 51°23.504 2°59.836 20.1367 0.073902 0.412905 -0.826448
2010-09-09 07:34:12 51°23.517 2°59.851 20.1794 0.073902 0.412905 -0.826448
2010-09-09 07:34:17 51°23.53 2°59.865 20.1983 0.073902 0.412912 -0.791624
2010-09-09 07:34:21 51°23.54 2°59.877 20.0965 0.073902 0.412919 -0.826448
2010-09-09 07:34:27 51°23.556 2°59.893 19.9199 0.073902 0.412912 -0.791624
2010-09-09 07:34:32 51°23.568 2°59.906 19.7943 0.073902 0.412905 -0.791624
2010-09-09 07:34:37 51°23.583 2°59.914 19.8851 0.073902 0.412946 -0.791624
2010-09-09 07:34:41 51°23.594 2°59.918 19.9933 0.073902 0.412946 -0.791624
2010-09-09 07:34:47 51°23.613 2°59.919 20.1788 0.073902 0.412994 -0.826448
2010-09-09 07:34:52 51°23.629 2°59.919 20.2368 0.073902 0.413008 -0.791624
2010-09-09 07:34:57 51°23.645 2°59.918 20.3695 0.073902 0.412974 -0.791624
2010-09-09 07:35:02 51°23.661 2°59.916 20.3847 0.073902 0.412946 -0.826448
2010-09-09 07:35:07 51°23.677 2°59.916 20.2816 0.073902 0.412892 -0.791624
2010-09-09 07:35:12 51°23.693 2°59.915 20.291 0.073902 0.412892 -0.791624
2010-09-09 07:35:17 51°23.71 2°59.915 20.2407 0.073902 0.412892 -0.791624
2010-09-09 07:35:22 51°23.726 2°59.915 20.2446 0.073902 0.412878 -0.791624
2010-09-09 07:35:27 51°23.743 2°59.915 20.223 0.073902 0.412892 -0.791624
2010-09-09 07:35:32 51°23.759 2°59.914 20.2891 0.073902 0.412905 -0.826448
2010-09-09 07:35:37 51°23.776 2°59.914 20.2444 0.073902 0.412926 -0.791624
2010-09-09 07:35:41 51°23.789 2°59.915 20.3163 0.073902 0.412926 -0.791624
2010-09-09 07:35:47 51°23.809 2°59.915 20.3175 0.073902 0.41294 -0.791624
2010-09-09 07:35:52 51°23.825 2°59.917 20.247 0.073902 0.41294 -0.7568
2010-09-09 07:35:57 51°23.841 2°59.917 20.278 0.073902 0.412946 -0.826448
2010-09-09 07:36:02 51°23.858 2°59.92 20.3442 0.073902 0.412926 -0.791624
2010-09-09 07:36:07 51°23.874 2°59.921 20.2591 0.073902 0.412933 -0.7568
2010-09-09 07:36:12 51°23.89 2°59.925 20.2636 0.073902 0.412933 -0.7568
2010-09-09 07:36:17 51°23.906 2°59.927 20.2925 0.073902 0.412912 -0.826448
2010-09-09 07:36:21 51°23.919 2°59.932 20.2902 0.073902 0.412926 -0.791624
2010-09-09 07:36:27 51°23.939 2°59.936 20.3224 0.073902 0.412926 -0.791624
2010-09-09 07:36:32 51°23.954 2°59.942 20.2817 0.073902 0.412912 -0.7568
2010-09-09 07:36:37 51°23.97 2°59.946 20.3096 0.073902 0.412946 -0.791624
2010-09-09 07:36:41 51°23.983 2°59.951 20.3458 0.073902 0.412946 -0.791624
2010-09-09 07:36:47 51°24.002 2°59.957 20.3322 0.073902 0.412933 -0.791624
2010-09-09 07:36:52 51°24.017 2°59.964 20.2989 0.073902 0.41294 -0.791624
2010-09-09 07:36:57 51°24.033 2°59.97 20.3055 0.073902 0.41294 -0.826448
2010-09-09 07:37:02 51°24.048 2°59.978 20.3321 0.073902 0.412919 -0.7568
2010-09-09 07:37:06 51°24.061 2°59.983 20.2761 0.073902 0.412933 -0.791624
2010-09-09 07:37:12 51°24.079 2°59.994 20.3412 0.073902 0.412933 -0.791624
2010-09-09 07:37:17 51°24.095 3°0 20.326 0.073902 0.412919 -0.791624
2010-09-09 07:37:21 51°24.106 3°0.008 20.3136 0.073902 0.41294 -0.7568
2010-09-09 07:37:27 51°24.125 3°0.018 20.2832 0.073902 0.41294 -0.826448
2010-09-09 07:37:32 51°24.139 3°0.028 20.3237 0.073902 0.412946 -0.7568
2010-09-09 07:37:37 51°24.154 3°0.036 20.3607 0.073902 0.412953 -0.7568
2010-09-09 07:37:42 51°24.169 3°0.046 20.3028 0.073902 0.412953 -0.7568
2010-09-09 07:37:47 51°24.184 3°0.056 20.3735 0.073902 0.412926 -0.791624
2010-09-09 07:37:52 51°24.198 3°0.066 20.29 0.073902 0.412933 -0.791624
2010-09-09 07:37:57 51°24.213 3°0.077 20.3159 0.073902 0.412912 -0.826448
2010-09-09 07:38:02 51°24.228 3°0.087 20.371 0.073902 0.412926 -0.826448
2010-09-09 07:38:07 51°24.242 3°0.099 20.2643 0.073902 0.412919 -0.791624
2010-09-09 07:38:12 51°24.257 3°0.108 20.35 0.073902 0.412919 -0.791624
2010-09-09 07:38:17 51°24.272 3°0.119 20.3353 0.073902 0.412933 -0.826448
2010-09-09 07:38:22 51°24.287 3°0.129 20.3511 0.073902 0.412926 -0.791624
2010-09-09 07:38:27 51°24.301 3°0.139 20.3193 0.073902 0.41294 -0.791624
2010-09-09 07:38:32 51°24.316 3°0.151 20.3875 0.073902 0.412946 -0.791624
2010-09-09 07:38:37 51°24.331 3°0.16 20.319 0.073902 0.41294 -0.826448
2010-09-09 07:38:41 51°24.342 3°0.17 20.3482 0.073902 0.41294 -0.826448
2010-09-09 07:38:47 51°24.36 3°0.181 20.3206 0.073902 0.412933 -0.791624
2010-09-09 07:38:52 51°24.375 3°0.192 20.431 0.073902 0.41294 -0.826448
2010-09-09 07:38:57 51°24.39 3°0.201 20.3316 0.073902 0.41296 -0.791624
2010-09-09 07:39:02 51°24.404 3°0.213 20.3577 0.073902 0.412933 -0.791624
2010-09-09 07:39:06 51°24.416 3°0.221 20.3681 0.073902 0.412946 -0.826448
2010-09-09 07:39:12 51°24.433 3°0.234 20.3533 0.073902 0.412946 -0.826448
2010-09-09 07:39:17 51°24.448 3°0.245 20.3284 0.073902 0.412933 -0.791624
2010-09-09 07:39:22 51°24.462 3°0.256 20.4059 0.073902 0.41294 -0.826448
2010-09-09 07:39:27 51°24.477 3°0.267 20.3618 0.073902 0.412946 -0.791624
2010-09-09 07:39:32 51°24.491 3°0.278 20.317 0.073902 0.412933 -0.791624
2010-09-09 07:39:37 51°24.506 3°0.289 20.469 0.073902 0.41294 -0.791624
2010-09-09 07:39:42 51°24.52 3°0.3 20.3376 0.073902 0.41294 -0.791624
2010-09-09 07:39:47 51°24.534 3°0.313 20.4172 0.073902 0.412912 -0.791624
2010-09-09 07:39:52 51°24.549 3°0.323 20.3957 0.073902 0.412946 -0.826448
2010-09-09 07:39:57 51°24.562 3°0.336 20.4248 0.073902 0.412933 -0.7568
2010-09-09 07:40:02 51°24.577 3°0.347 20.3316 0.073902 0.41294 -0.7568
2010-09-09 07:40:07 51°24.591 3°0.36 20.4441 0.073902 0.412933 -0.791624
2010-09-09 07:40:12 51°24.606 3°0.371 20.3849 0.073902 0.412933 -0.791624
2010-09-09 07:40:17 51°24.62 3°0.384 20.4009 0.073902 0.412946 -0.826448
2010-09-09 07:40:21 51°24.632 3°0.393 20.3814 0.073902 0.412946 -0.7568
2010-09-09 07:40:27 51°24.649 3°0.408 20.3828 0.073902 0.41294 -0.826448
2010-09-09 07:40:32 51°24.664 3°0.419 20.4026 0.073902 0.412946 -0.791624
2010-09-09 07:40:37 51°24.679 3°0.431 20.4153 0.073902 0.41294 -0.7568
2010-09-09 07:40:41 51°24.69 3°0.441 20.4152 0.073902 0.41294 -0.7568
2010-09-09 07:40:47 51°24.708 3°0.456 20.4048 0.073902 0.412933 -0.826448
2010-09-09 07:40:52 51°24.723 3°0.468 20.4098 0.073902 0.41294 -0.791624
2010-09-09 07:40:57 51°24.737 3°0.48 20.367 0.073902 0.412933 -0.791624
2010-09-09 07:41:02 51°24.752 3°0.492 20.4303 0.073902 0.412946 -0.826448
2010-09-09 07:41:06 51°24.764 3°0.502 20.4002 0.073902 0.412946 -0.826448
2010-09-09 07:41:12 51°24.782 3°0.517 20.4132 0.073902 0.412946 -0.826448
2010-09-09 07:41:17 51°24.796 3°0.529 20.4228 0.073902 0.41294 -0.791624
2010-09-09 07:41:22 51°24.811 3°0.541 20.394 0.073902 0.412946 -0.791624
2010-09-09 07:41:27 51°24.826 3°0.553 20.4582 0.073902 0.412946 -0.791624
2010-09-09 07:41:32 51°24.841 3°0.565 20.4289 0.073902 0.41294 -0.791624
2010-09-09 07:41:37 51°24.855 3°0.578 20.3998 0.073902 0.41294 -0.791624
2010-09-09 07:41:42 51°24.87 3°0.591 20.4729 0.073902 0.41294 -0.791624
2010-09-09 07:41:46 51°24.882 3°0.6 20.4281 0.073902 0.412946 -0.826448
2010-09-09 07:41:52 51°24.899 3°0.615 20.4113 0.073902 0.412946 -0.826448
2010-09-09 07:41:57 51°24.914 3°0.627 20.4074 0.073902 0.412953 -0.826448
2010-09-09 07:42:02 51°24.929 3°0.64 20.4236 0.073902 0.412946 -0.791624
2010-09-09 07:42:07 51°24.943 3°0.652 20.4387 0.073902 0.41296 -0.7568
2010-09-09 07:42:12 51°24.958 3°0.665 20.4395 0.073902 0.41296 -0.7568
2010-09-09 07:42:17 51°24.973 3°0.678 20.441 0.073902 0.41294 -0.791624
2010-09-09 07:42:21 51°24.984 3°0.687 20.4728 0.073902 0.41296 -0.7568
2010-09-09 07:42:27 51°25.002 3°0.703 20.4259 0.073902 0.412946 -0.7568
2010-09-09 07:42:32 51°25.016 3°0.715 20.4694 0.073902 0.412953 -0.826448
2010-09-09 07:42:37 51°25.031 3°0.727 20.4578 0.073902 0.41296 -0.826448
2010-09-09 07:42:42 51°25.045 3°0.74 20.4525 0.073902 0.41296 -0.826448
2010-09-09 07:42:47 51°25.06 3°0.751 20.4232 0.073902 0.412953 -0.7568
2010-09-09 07:42:52 51°25.074 3°0.765 20.462 0.073902 0.412946 -0.826448
2010-09-09 07:42:57 51°25.089 3°0.776 20.4592 0.073902 0.412974 -0.7568
2010-09-09 07:43:01 51°25.1 3°0.787 20.4588 0.073902 0.412953 -0.791624
2010-09-09 07:43:07 51°25.118 3°0.801 20.483 0.073902 0.412967 -0.791624
2010-09-09 07:43:12 51°25.132 3°0.814 20.4646 0.073902 0.412967 -0.791624
2010-09-09 07:43:17 51°25.146 3°0.826 20.487 0.073902 0.41296 -0.791624
2010-09-09 07:43:21 51°25.158 3°0.836 20.4551 0.073902 0.412967 -0.791624
2010-09-09 07:43:27 51°25.175 3°0.851 20.4686 0.073902 0.41296 -0.826448
2010-09-09 07:43:32 51°25.19 3°0.864 20.4862 0.073902 0.41296 -0.7568
2010-09-09 07:43:37 51°25.204 3°0.876 20.5006 0.073902 0.41296 -0.7568
2010-09-09 07:43:42 51°25.218 3°0.89 20.4583 0.073902 0.41296 -0.7568
2010-09-09 07:43:46 51°25.23 3°0.9 20.4976 0.073902 0.412953 -0.791624
2010-09-09 07:43:52 51°25.247 3°0.914 20.4689 0.073902 0.412967 -0.791624
2010-09-09 07:43:57 51°25.261 3°0.927 20.5188 0.073902 0.41296 -0.791624
2010-09-09 07:44:01 51°25.273 3°0.936 20.4765 0.073902 0.412967 -0.791624
2010-09-09 07:44:07 51°25.29 3°0.951 20.532 0.073902 0.412974 -0.791624
2010-09-09 07:44:12 51°25.305 3°0.964 20.4841 0.073902 0.412974 -0.791624
2010-09-09 07:44:17 51°25.319 3°0.976 20.5296 0.073902 0.41296 -0.791624
2010-09-09 07:44:22 51°25.334 3°0.988 20.4723 0.073902 0.412967 -0.791624
2010-09-09 07:44:27 51°25.348 3°1.002 20.5011 0.073902 0.412953 -0.791624
2010-09-09 07:44:32 51°25.363 3°1.013 20.4817 0.073902 0.412974 -0.791624
2010-09-09 07:44:37 51°25.377 3°1.026 20.492 0.073902 0.41296 -0.7568
2010-09-09 07:44:42 51°25.392 3°1.038 20.4843 0.073902 0.41296 -0.7568
2010-09-09 07:44:47 51°25.406 3°1.051 20.4925 0.073902 0.412967 -0.826448
2010-09-09 07:44:52 51°25.421 3°1.063 20.4917 0.073902 0.41296 -0.826448
2010-09-09 07:44:57 51°25.435 3°1.075 20.5334 0.073902 0.412967 -0.826448
2010-09-09 07:45:02 51°25.45 3°1.087 20.4918 0.073902 0.41296 -0.791624
2010-09-09 07:45:07 51°25.464 3°1.1 20.502 0.073902 0.412953 -0.791624
2010-09-09 07:45:12 51°25.479 3°1.111 20.5418 0.073902 0.412953 -0.791624
2010-09-09 07:45:17 51°25.493 3°1.124 20.5146 0.073902 0.412967 -0.791624
2010-09-09 07:45:21 51°25.505 3°1.133 20.5135 0.073902 0.41296 -0.826448
2010-09-09 07:45:27 51°25.522 3°1.148 20.5172 0.073902 0.412967 -0.791624
2010-09-09 07:45:32 51°25.537 3°1.159 20.4798 0.073902 0.412953 -0.791624
2010-09-09 07:45:37 51°25.551 3°1.172 20.5809 0.073902 0.412974 -0.791624
2010-09-09 07:45:42 51°25.566 3°1.183 20.4746 0.073902 0.412974 -0.791624
2010-09-09 07:45:46 51°25.577 3°1.194 20.5464 0.073902 0.41296 -0.791624
2010-09-09 07:45:52 51°25.595 3°1.207 20.5443 0.073902 0.412981 -0.826448
2010-09-09 07:45:57 51°25.608 3°1.221 20.5374 0.073902 0.412967 -0.7568
2010-09-09 07:46:01 51°25.62 3°1.23 20.5198 0.073902 0.412974 -0.791624
2010-09-09 07:46:07 51°25.637 3°1.246 20.5569 0.073902 0.412967 -0.826448
2010-09-09 07:46:12 51°25.651 3°1.258 20.5169 0.073902 0.412967 -0.826448
2010-09-09 07:46:17 51°25.664 3°1.272 20.5623 0.073902 0.41296 -0.7568
2010-09-09 07:46:22 51°25.678 3°1.285 20.5424 0.073902 0.412974 -0.826448
2010-09-09 07:46:26 51°25.689 3°1.297 20.5562 0.073902 0.41296 -0.791624
2010-09-09 07:46:32 51°25.705 3°1.314 20.5238 0.073902 0.412967 -0.7568
2010-09-09 07:46:37 51°25.719 3°1.327 20.6028 0.073902 0.412987 -0.791624
2010-09-09 07:46:42 51°25.732 3°1.341 20.5274 0.073902 0.412987 -0.791624
2010-09-09 07:46:47 51°25.746 3°1.355 20.5461 0.073902 0.41296 -0.826448
2010-09-09 07:46:52 51°25.759 3°1.368 20.552 0.073902 0.412987 -0.791624
2010-09-09 07:46:57 51°25.772 3°1.383 20.5615 0.073902 0.412974 -0.791624
2010-09-09 07:47:02 51°25.786 3°1.396 20.537 0.073902 0.412981 -0.791624
2010-09-09 07:47:07 51°25.799 3°1.411 20.577 0.073902 0.412967 -0.791624
2010-09-09 07:47:12 51°25.813 3°1.425 20.5383 0.073902 0.412967 -0.791624
2010-09-09 07:47:17 51°25.825 3°1.44 20.5776 0.073902 0.41296 -0.791624
2010-09-09 07:47:21 51°25.836 3°1.451 20.5859 0.073902 0.412974 -0.826448
2010-09-09 07:47:27 51°25.851 3°1.469 20.5866 0.073902 0.412967 -0.826448
2010-09-09 07:47:32 51°25.865 3°1.483 20.543 0.073902 0.412981 -0.791624
2010-09-09 07:47:37 51°25.877 3°1.499 20.5696 0.073902 0.412974 -0.791624
2010-09-09 07:47:41 51°25.888 3°1.51 20.5529 0.073902 0.412974 -0.791624
2010-09-09 07:47:47 51°25.903 3°1.528 20.5871 0.073902 0.412974 -0.826448
2010-09-09 07:47:52 51°25.917 3°1.542 20.5769 0.073902 0.412994 -0.7568
2010-09-09 07:47:57 51°25.929 3°1.557 20.5586 0.073902 0.412967 -0.791624
2010-09-09 07:48:02 51°25.942 3°1.571 20.5986 0.073902 0.412981 -0.791624
2010-09-09 07:48:06 51°25.953 3°1.582 20.5793 0.073902 0.412967 -0.791624
2010-09-09 07:48:12 51°25.968 3°1.599 20.6009 0.073902 0.412967 -0.791624
2010-09-09 07:48:17 51°25.981 3°1.614 20.6042 0.073902 0.412974 -0.7568
2010-09-09 07:48:22 51°25.994 3°1.627 20.6223 0.073902 0.412967 -0.791624
2010-09-09 07:48:26 51°26.004 3°1.639 20.5729 0.073902 0.412981 -0.7568
2010-09-09 07:48:32 51°26.02 3°1.656 20.6052 0.073902 0.412981 -0.826448
2010-09-09 07:48:37 51°26.032 3°1.671 20.5916 0.073902 0.412974 -0.791624
2010-09-09 07:48:41 51°26.043 3°1.682 20.6223 0.073902 0.412974 -0.791624
2010-09-09 07:48:47 51°26.058 3°1.699 20.5871 0.073902 0.412981 -0.791624
2010-09-09 07:48:52 51°26.071 3°1.713 20.631 0.073902 0.41296 -0.791624
2010-09-09 07:48:57 51°26.084 3°1.727 20.5904 0.073902 0.412981 -0.791624
2010-09-09 07:49:02 51°26.097 3°1.741 20.6125 0.073902 0.412974 -0.791624
2010-09-09 07:49:07 51°26.11 3°1.755 20.5909 0.073902 0.412974 -0.791624
2010-09-09 07:49:12 51°26.123 3°1.769 20.6104 0.073902 0.412974 -0.791624
2010-09-09 07:49:17 51°26.135 3°1.783 20.6098 0.073902 0.412987 -0.791624
2010-09-09 07:49:22 51°26.148 3°1.797 20.588 0.073902 0.412974 -0.791624
2010-09-09 07:49:27 51°26.161 3°1.811 20.6351 0.073902 0.412974 -0.791624
2010-09-09 07:49:32 51°26.174 3°1.824 20.652 0.073902 0.412981 -0.7568
2010-09-09 07:49:37 51°26.186 3°1.837 20.6148 0.073902 0.412981 -0.791624
2010-09-09 07:49:41 51°26.196 3°1.848 20.6149 0.073902 0.412981 -0.791624
2010-09-09 07:49:47 51°26.211 3°1.864 20.6189 0.073902 0.412987 -0.826448
2010-09-09 07:49:52 51°26.224 3°1.879 20.6327 0.073902 0.412987 -0.826448
2010-09-09 07:49:57 51°26.237 3°1.892 20.6095 0.073902 0.412981 -0.791624
2010-09-09 07:50:01 51°26.247 3°1.905 20.6367 0.073902 0.412974 -0.791624
2010-09-09 07:50:07 51°26.263 3°1.92 20.6219 0.073902 0.412994 -0.7568
2010-09-09 07:50:12 51°26.275 3°1.935 20.6471 0.073902 0.412994 -0.7568
2010-09-09 07:50:17 51°26.288 3°1.948 20.6454 0.073902 0.41296 -0.791624
2010-09-09 07:50:22 51°26.3 3°1.962 20.6206 0.073902 0.412987 -0.791624
2010-09-09 07:50:26 51°26.31 3°1.974 20.6559 0.073902 0.412987 -0.791624
2010-09-09 07:50:32 51°26.325 3°1.991 20.6322 0.073902 0.412994 -0.7568
2010-09-09 07:50:37 51°26.338 3°2.005 20.6221 0.073902 0.412987 -0.791624
2010-09-09 07:50:42 51°26.351 3°2.019 20.6193 0.073902 0.412987 -0.791624
2010-09-09 07:50:47 51°26.364 3°2.031 20.643 0.073902 0.412994 -0.826448
2010-09-09 07:50:52 51°26.376 3°2.046 20.619 0.073902 0.412987 -0.791624
2010-09-09 07:50:57 51°26.389 3°2.059 20.679 0.073902 0.412987 -0.791624